Time,TemperatureF,DewpointF,PressureIn,WindDirection,WindDirectionDegrees,WindSpeedMPH,WindSpeedGustMPH,Humidity,HourlyPrecipIn,Conditions,Clouds,dailyrainin,SolarRadiationWatts/m^2,SoftwareType,DateUTC
2013-03-20 00:00:00,66.5,64.7,29.98,WNW,296,0.0,1.0,94,0.00,,CLR,0.00,0.00,VWS V14.01,2013-03-20 04:00:00,
2013-03-20 00:05:00,66.4,64.6,29.97,WNW,296,2.0,2.0,94,0.00,,CLR,0.00,0.00,VWS V14.01,2013-03-20 04:05:00,
2013-03-20 00:10:00,66.5,64.7,29.97,WNW,296,0.0,2.0,94,0.00,,CLR,0.00,0.00,VWS V14.01,2013-03-20 04:10:00,
2013-03-20 00:15:00,66.5,64.7,29.97,WSW,249,2.0,5.0,94,0.00,,CLR,0.00,0.00,VWS V14.01,2013-03-20 04:15:00,
2013-03-20 00:20:00,66.6,64.8,29.97,WSW,254,1.0,3.0,94,0.00,,CLR,0.00,0.00,VWS V14.01,2013-03-20 04:20:00,
2013-03-20 00:25:00,66.8,65.0,29.97,WSW,254,2.0,2.0,94,0.00,,CLR,0.00,0.00,VWS V14.01,2013-03-20 04:25:00,
2013-03-20 00:30:00,66.8,65.0,29.97,WSW,254,1.0,1.0,94,0.00,,CLR,0.00,0.00,VWS V14.01,2013-03-20 04:30:00,
2013-03-20 00:35:00,66.8,64.7,29.97,WSW,254,1.0,1.0,93,0.00,,CLR,0.00,0.00,VWS V14.01,2013-03-20 04:35:00,
2013-03-20 00:40:00,66.7,64.6,29.97,WSW,254,1.0,1.0,93,0.00,,CLR,0.00,0.00,VWS V14.01,2013-03-20 04:40:00,
2013-03-20 00:45:00,66.7,64.6,29.97,WSW,254,0.0,0.0,93,0.00,,CLR,0.00,0.00,VWS V14.01,2013-03-20 04:45:00,
2013-03-20 00:50:00,66.7,64.6,29.97,WSW,254,1.0,1.0,93,0.00,,CLR,0.00,0.00,VWS V14.01,2013-03-20 04:50:00,
2013-03-20 00:55:00,66.6,64.5,29.97,WSW,254,0.0,1.0,93,0.00,,CLR,0.00,0.00,VWS V14.01,2013-03-20 04:55:00,
2013-03-20 01:00:00,66.6,64.5,29.97,WSW,254,0.0,1.0,93,0.00,,CLR,0.00,0.00,VWS V14.01,2013-03-20 05:00:00,
2013-03-20 01:05:00,66.6,64.5,29.97,West,277,1.0,3.0,93,0.00,,CLR,0.00,0.00,VWS V14.01,2013-03-20 05:05:00,
2013-03-20 01:10:00,66.7,64.6,29.97,West,278,0.0,2.0,93,0.00,,CLR,0.00,0.00,VWS V14.01,2013-03-20 05:10:00,
2013-03-20 01:15:00,66.7,64.6,29.97,WNW,284,1.0,2.0,93,0.00,,CLR,0.00,0.00,VWS V14.01,2013-03-20 05:15:00,
2013-03-20 01:20:00,66.8,64.7,29.97,WNW,300,0.0,3.0,93,0.00,,CLR,0.00,0.00,VWS V14.01,2013-03-20 05:20:00,
2013-03-20 01:25:00,66.8,64.7,29.97,WNW,302,2.0,2.0,93,0.00,,CLR,0.00,0.00,VWS V14.01,2013-03-20 05:25:00,
2013-03-20 01:28:00,66.9,64.8,29.98,NW,317,2.0,2.0,93,0.00,,CLR,0.00,0.00,VWS V14.01,2013-03-20 05:28:00,
2013-03-20 01:30:00,66.9,64.8,29.98,NW,317,2.0,2.0,93,0.00,,CLR,0.00,0.00,VWS V14.01,2013-03-20 05:30:00,
2013-03-20 01:33:00,66.9,64.8,29.98,NW,317,2.0,2.0,93,0.00,,CLR,0.00,0.00,VWS V14.01,2013-03-20 05:33:00,
2013-03-20 01:35:00,67.0,64.9,29.98,NW,315,3.0,3.0,93,0.00,,CLR,0.00,0.00,VWS V14.01,2013-03-20 05:35:00,
2013-03-20 01:38:00,67.0,64.9,29.97,WNW,292,2.0,3.0,93,0.00,,CLR,0.00,0.00,VWS V14.01,2013-03-20 05:38:00,
2013-03-20 01:40:00,67.0,64.9,29.97,WNW,292,1.0,3.0,93,0.00,,CLR,0.00,0.00,VWS V14.01,2013-03-20 05:40:00,
2013-03-20 01:43:00,67.2,65.1,29.97,NNW,339,3.0,3.0,93,0.00,,CLR,0.00,0.00,VWS V14.01,2013-03-20 05:43:00,
2013-03-20 01:45:00,67.2,65.1,29.97,NW,325,3.0,3.0,93,0.00,,CLR,0.00,0.00,VWS V14.01,2013-03-20 05:45:00,
2013-03-20 01:48:00,67.3,65.2,29.97,NW,304,2.0,4.0,93,0.00,,CLR,0.00,0.00,VWS V14.01,2013-03-20 05:48:00,
2013-03-20 01:50:00,67.3,65.2,29.97,NW,304,1.0,4.0,93,0.00,,CLR,0.00,0.00,VWS V14.01,2013-03-20 05:50:00,
2013-03-20 01:54:00,67.4,65.3,29.97,NW,316,2.0,4.0,93,0.00,,CLR,0.00,0.00,VWS V14.01,2013-03-20 05:54:00,
2013-03-20 01:55:00,67.4,65.3,29.97,NW,316,2.0,4.0,93,0.00,,CLR,0.00,0.00,VWS V14.01,2013-03-20 05:55:00,
2013-03-20 01:59:00,67.4,65.3,29.97,NW,322,1.0,2.0,93,0.00,,CLR,0.00,0.00,VWS V14.01,2013-03-20 05:59:00,
2013-03-20 02:00:00,67.4,65.3,29.97,NW,322,1.0,2.0,93,0.00,,CLR,0.00,0.00,VWS V14.01,2013-03-20 06:00:00,
2013-03-20 02:04:00,67.5,65.4,29.97,NW,323,0.0,3.0,93,0.00,,CLR,0.00,0.00,VWS V14.01,2013-03-20 06:04:00,
2013-03-20 02:05:00,67.5,65.4,29.97,NW,323,0.0,3.0,93,0.00,,CLR,0.00,0.00,VWS V14.01,2013-03-20 06:05:00,
2013-03-20 02:09:00,67.5,65.4,29.97,WNW,295,0.0,6.0,93,0.00,,CLR,0.00,0.00,VWS V14.01,2013-03-20 06:09:00,
2013-03-20 02:10:00,67.5,65.4,29.97,WNW,295,0.0,6.0,93,0.00,,CLR,0.00,0.00,VWS V14.01,2013-03-20 06:10:00,
2013-03-20 02:14:00,67.4,65.3,29.97,NW,321,2.0,5.0,93,0.00,,CLR,0.00,0.00,VWS V14.01,2013-03-20 06:14:00,
2013-03-20 02:15:00,67.4,65.3,29.97,NW,321,2.0,5.0,93,0.00,,CLR,0.00,0.00,VWS V14.01,2013-03-20 06:15:00,
2013-03-20 02:19:00,67.4,65.0,29.97,NW,315,1.0,2.0,92,0.00,,CLR,0.00,0.00,VWS V14.01,2013-03-20 06:19:00,
2013-03-20 02:20:00,67.4,65.0,29.97,NW,315,1.0,2.0,92,0.00,,CLR,0.00,0.00,VWS V14.01,2013-03-20 06:20:00,
2013-03-20 02:23:00,67.2,64.8,29.97,NW,311,1.0,3.0,92,0.00,,CLR,0.00,0.00,VWS V14.01,2013-03-20 06:23:00,
2013-03-20 02:25:00,67.3,64.9,29.97,NW,311,1.0,3.0,92,0.00,,CLR,0.00,0.00,VWS V14.01,2013-03-20 06:25:00,
2013-03-20 02:28:00,67.2,64.8,29.96,NW,311,0.0,1.0,92,0.00,,CLR,0.00,0.00,VWS V14.01,2013-03-20 06:28:00,
2013-03-20 02:30:00,67.2,64.8,29.96,NW,311,0.0,1.0,92,0.00,,CLR,0.00,0.00,VWS V14.01,2013-03-20 06:30:00,
2013-03-20 02:33:00,67.1,64.7,29.96,NW,311,0.0,2.0,92,0.00,,CLR,0.00,0.00,VWS V14.01,2013-03-20 06:33:00,
2013-03-20 02:35:00,67.1,64.7,29.96,NW,311,1.0,2.0,92,0.00,,CLR,0.00,0.00,VWS V14.01,2013-03-20 06:35:00,
2013-03-20 02:38:00,67.0,64.6,29.96,NW,311,1.0,1.0,92,0.00,,CLR,0.00,0.00,VWS V14.01,2013-03-20 06:38:00,
2013-03-20 02:40:00,67.0,64.6,29.96,NW,311,0.0,1.0,92,0.00,,CLR,0.00,0.00,VWS V14.01,2013-03-20 06:40:00,
2013-03-20 02:43:00,66.9,64.5,29.96,NW,311,0.0,0.0,92,0.00,,BKN035,0.00,0.00,VWS V14.01,2013-03-20 06:43:00,
2013-03-20 02:45:00,66.9,64.5,29.96,NW,311,0.0,0.0,92,0.00,,CLR,0.00,0.00,VWS V14.01,2013-03-20 06:45:00,
2013-03-20 02:48:00,66.7,64.3,29.96,NW,311,0.0,0.0,92,0.00,,BKN035,0.00,0.00,VWS V14.01,2013-03-20 06:48:00,
2013-03-20 02:50:00,66.7,64.3,29.96,NW,311,0.0,0.0,92,0.00,,CLR,0.00,0.00,VWS V14.01,2013-03-20 06:50:00,
2013-03-20 02:54:00,66.6,64.2,29.96,NW,311,0.0,0.0,92,0.00,,BKN035,0.00,0.00,VWS V14.01,2013-03-20 06:54:00,
2013-03-20 02:55:00,66.6,64.2,29.96,NW,311,0.0,0.0,92,0.00,,CLR,0.00,0.00,VWS V14.01,2013-03-20 06:55:00,
2013-03-20 02:59:00,66.5,64.1,29.95,NW,311,0.0,0.0,92,0.00,,BKN035,0.00,0.00,VWS V14.01,2013-03-20 06:59:00,
2013-03-20 03:00:00,66.5,64.1,29.95,NW,311,0.0,0.0,92,0.00,,CLR,0.00,0.00,VWS V14.01,2013-03-20 07:00:00,
2013-03-20 03:04:00,66.2,63.8,29.95,NW,311,0.0,0.0,92,0.00,,BKN035,0.00,0.00,VWS V14.01,2013-03-20 07:04:00,
2013-03-20 03:05:00,66.2,63.8,29.95,NW,311,0.0,0.0,92,0.00,,CLR,0.00,0.00,VWS V14.01,2013-03-20 07:05:00,
2013-03-20 03:09:00,66.1,64.0,29.94,NW,311,0.0,0.0,93,0.00,,BKN035,0.00,0.00,VWS V14.01,2013-03-20 07:09:00,
2013-03-20 03:10:00,66.1,64.0,29.94,NW,311,0.0,0.0,93,0.00,,CLR,0.00,0.00,VWS V14.01,2013-03-20 07:10:00,
2013-03-20 03:14:00,66.0,63.9,29.94,NW,311,1.0,1.0,93,0.00,,BKN035,0.00,0.00,VWS V14.01,2013-03-20 07:14:00,
2013-03-20 03:15:00,66.0,63.9,29.94,NW,311,1.0,1.0,93,0.00,,CLR,0.00,0.00,VWS V14.01,2013-03-20 07:15:00,
2013-03-20 03:19:00,65.8,63.7,29.94,NW,311,0.0,0.0,93,0.00,,BKN035,0.00,0.00,VWS V14.01,2013-03-20 07:19:00,
2013-03-20 03:20:00,65.8,63.7,29.94,NW,311,0.0,0.0,93,0.00,,CLR,0.00,0.00,VWS V14.01,2013-03-20 07:20:00,
2013-03-20 03:24:00,65.7,63.6,29.94,NW,311,0.0,0.0,93,0.00,,BKN035,0.00,0.00,VWS V14.01,2013-03-20 07:24:00,
2013-03-20 03:25:00,65.7,63.6,29.94,NW,311,0.0,0.0,93,0.00,,CLR,0.00,0.00,VWS V14.01,2013-03-20 07:25:00,
2013-03-20 03:29:00,65.7,63.6,29.94,NW,311,0.0,0.0,93,0.00,,BKN035,0.00,0.00,VWS V14.01,2013-03-20 07:29:00,
2013-03-20 03:30:00,65.7,63.6,29.94,NW,311,0.0,0.0,93,0.00,,CLR,0.00,0.00,VWS V14.01,2013-03-20 07:30:00,
2013-03-20 03:34:00,65.6,63.5,29.94,NW,311,0.0,0.0,93,0.00,,BKN035,0.00,0.00,VWS V14.01,2013-03-20 07:34:00,
2013-03-20 03:35:00,65.6,63.5,29.94,NW,311,0.0,0.0,93,0.00,,CLR,0.00,0.00,VWS V14.01,2013-03-20 07:35:00,
2013-03-20 03:39:00,65.4,63.3,29.93,NW,311,0.0,0.0,93,0.00,,BKN035,0.00,0.00,VWS V14.01,2013-03-20 07:39:00,
2013-03-20 03:40:00,65.4,63.3,29.93,NW,311,0.0,0.0,93,0.00,,CLR,0.00,0.00,VWS V14.01,2013-03-20 07:40:00,
2013-03-20 03:44:00,65.2,63.1,29.93,NW,311,0.0,0.0,93,0.00,,SCT035,0.00,0.00,VWS V14.01,2013-03-20 07:44:00,
2013-03-20 03:45:00,65.2,63.1,29.93,NW,311,0.0,0.0,93,0.00,,CLR,0.00,0.00,VWS V14.01,2013-03-20 07:45:00,
2013-03-20 03:49:00,65.1,63.3,29.94,NW,311,0.0,0.0,94,0.00,,SCT035,0.00,0.00,VWS V14.01,2013-03-20 07:49:00,
2013-03-20 03:50:00,65.1,63.3,29.94,NW,311,0.0,0.0,94,0.00,,CLR,0.00,0.00,VWS V14.01,2013-03-20 07:50:00,
2013-03-20 03:54:00,65.0,63.2,29.94,NW,311,0.0,0.0,94,0.00,,SCT035,0.00,0.00,VWS V14.01,2013-03-20 07:54:00,
2013-03-20 03:55:00,65.0,63.2,29.94,NW,311,0.0,0.0,94,0.00,,CLR,0.00,0.00,VWS V14.01,2013-03-20 07:55:00,
2013-03-20 03:59:00,65.1,63.3,29.93,NW,311,0.0,1.0,94,0.00,,SCT035,0.00,0.00,VWS V14.01,2013-03-20 07:59:00,
2013-03-20 04:00:00,65.1,63.3,29.93,NW,311,1.0,1.0,94,0.00,,CLR,0.00,0.00,VWS V14.01,2013-03-20 08:00:00,
2013-03-20 04:04:00,65.1,63.3,29.93,NW,311,0.0,0.0,94,0.00,,SCT035,0.00,0.00,VWS V14.01,2013-03-20 08:04:00,
2013-03-20 04:05:00,65.1,63.3,29.93,NW,311,0.0,0.0,94,0.00,,CLR,0.00,0.00,VWS V14.01,2013-03-20 08:05:00,
2013-03-20 04:08:00,65.0,63.2,29.93,NW,311,0.0,0.0,94,0.00,,SCT035,0.00,0.00,VWS V14.01,2013-03-20 08:08:00,
2013-03-20 04:10:00,65.0,63.2,29.93,NW,311,0.0,0.0,94,0.00,,CLR,0.00,0.00,VWS V14.01,2013-03-20 08:10:00,
2013-03-20 04:13:00,64.8,63.0,29.93,NW,311,0.0,0.0,94,0.00,,SCT035,0.00,0.00,VWS V14.01,2013-03-20 08:13:00,
2013-03-20 04:15:00,64.8,63.0,29.93,NW,311,0.0,0.0,94,0.00,,CLR,0.00,0.00,VWS V14.01,2013-03-20 08:15:00,
2013-03-20 04:18:00,64.6,62.8,29.93,NW,311,0.0,0.0,94,0.00,,SCT035,0.00,0.00,VWS V14.01,2013-03-20 08:18:00,
2013-03-20 04:20:00,64.6,62.8,29.93,NW,311,0.0,0.0,94,0.00,,CLR,0.00,0.00,VWS V14.01,2013-03-20 08:20:00,
2013-03-20 04:24:00,64.4,62.6,29.93,NW,311,0.0,0.0,94,0.00,,SCT035,0.00,0.00,VWS V14.01,2013-03-20 08:24:00,
2013-03-20 04:25:00,64.4,62.6,29.93,NW,311,0.0,0.0,94,0.00,,CLR,0.00,0.00,VWS V14.01,2013-03-20 08:25:00,
2013-03-20 04:29:00,64.3,62.5,29.93,NW,311,0.0,0.0,94,0.00,,SCT035,0.00,0.00,VWS V14.01,2013-03-20 08:29:00,
2013-03-20 04:30:00,64.3,62.5,29.93,NW,311,0.0,0.0,94,0.00,,CLR,0.00,0.00,VWS V14.01,2013-03-20 08:30:00,
2013-03-20 04:34:00,64.2,62.4,29.93,NW,311,1.0,1.0,94,0.00,,SCT035,0.00,0.00,VWS V14.01,2013-03-20 08:34:00,
2013-03-20 04:35:00,64.2,62.4,29.93,NW,311,1.0,1.0,94,0.00,,CLR,0.00,0.00,VWS V14.01,2013-03-20 08:35:00,
2013-03-20 04:38:00,64.2,62.7,29.93,NW,311,1.0,1.0,95,0.00,,SCT035,0.00,0.00,VWS V14.01,2013-03-20 08:38:00,
2013-03-20 04:40:00,64.2,62.7,29.93,NW,311,0.0,1.0,95,0.00,,CLR,0.00,0.00,VWS V14.01,2013-03-20 08:40:00,
2013-03-20 04:43:00,64.2,62.7,29.93,NW,311,0.0,0.0,95,0.00,,CLR,0.00,0.00,VWS V14.01,2013-03-20 08:43:00,
2013-03-20 04:45:00,64.2,62.7,29.93,NW,311,0.0,0.0,95,0.00,,CLR,0.00,0.00,VWS V14.01,2013-03-20 08:45:00,
2013-03-20 04:48:00,64.3,62.8,29.93,NW,311,1.0,1.0,95,0.00,,CLR,0.00,0.00,VWS V14.01,2013-03-20 08:48:00,
2013-03-20 04:50:00,64.3,62.8,29.93,NW,311,1.0,1.0,95,0.00,,CLR,0.00,0.00,VWS V14.01,2013-03-20 08:50:00,
2013-03-20 04:53:00,64.3,62.8,29.93,NW,311,0.0,1.0,95,0.00,,CLR,0.00,0.00,VWS V14.01,2013-03-20 08:53:00,
2013-03-20 04:55:00,64.3,62.8,29.93,NW,311,0.0,1.0,95,0.00,,CLR,0.00,0.00,VWS V14.01,2013-03-20 08:55:00,
2013-03-20 04:58:00,64.3,62.8,29.93,NW,311,0.0,0.0,95,0.00,,CLR,0.00,0.00,VWS V14.01,2013-03-20 08:58:00,
2013-03-20 05:00:00,64.3,62.8,29.93,NW,311,0.0,0.0,95,0.00,,CLR,0.00,0.00,VWS V14.01,2013-03-20 09:00:00,
2013-03-20 05:03:00,64.2,62.7,29.93,NW,311,0.0,0.0,95,0.00,,CLR,0.00,0.00,VWS V14.01,2013-03-20 09:03:00,
2013-03-20 05:05:00,64.2,62.7,29.93,NW,311,0.0,0.0,95,0.00,,CLR,0.00,0.00,VWS V14.01,2013-03-20 09:05:00,
2013-03-20 05:08:00,64.1,62.6,29.93,NW,311,0.0,0.0,95,0.00,,CLR,0.00,0.00,VWS V14.01,2013-03-20 09:08:00,
2013-03-20 05:10:00,64.1,62.6,29.93,NW,311,0.0,0.0,95,0.00,,CLR,0.00,0.00,VWS V14.01,2013-03-20 09:10:00,
2013-03-20 05:13:00,63.9,62.4,29.93,NW,311,0.0,0.0,95,0.00,,CLR,0.00,0.00,VWS V14.01,2013-03-20 09:13:00,
2013-03-20 05:15:00,63.9,62.4,29.93,NW,311,0.0,0.0,95,0.00,,CLR,0.00,0.00,VWS V14.01,2013-03-20 09:15:00,
2013-03-20 05:18:00,63.8,62.3,29.93,NW,311,0.0,0.0,95,0.00,,CLR,0.00,0.00,VWS V14.01,2013-03-20 09:18:00,
2013-03-20 05:20:00,63.8,62.3,29.93,NW,311,0.0,0.0,95,0.00,,CLR,0.00,0.00,VWS V14.01,2013-03-20 09:20:00,
2013-03-20 05:23:00,63.7,62.2,29.93,NW,311,0.0,0.0,95,0.00,,CLR,0.00,0.00,VWS V14.01,2013-03-20 09:23:00,
2013-03-20 05:25:00,63.7,62.2,29.93,NW,311,0.0,0.0,95,0.00,,CLR,0.00,0.00,VWS V14.01,2013-03-20 09:25:00,
2013-03-20 05:28:00,63.6,62.2,29.93,NW,311,0.0,0.0,95,0.00,,CLR,0.00,0.00,VWS V14.01,2013-03-20 09:28:00,
2013-03-20 05:30:00,63.5,62.0,29.93,NW,311,0.0,0.0,95,0.00,,CLR,0.00,0.00,VWS V14.01,2013-03-20 09:30:00,
2013-03-20 05:33:00,63.4,62.0,29.93,NW,311,0.0,0.0,95,0.00,,CLR,0.00,0.00,VWS V14.01,2013-03-20 09:33:00,
2013-03-20 05:35:00,63.4,62.0,29.94,NW,311,0.0,0.0,95,0.00,,CLR,0.00,0.00,VWS V14.01,2013-03-20 09:35:00,
2013-03-20 05:38:00,63.3,61.8,29.93,NW,311,0.0,0.0,95,0.00,,CLR,0.00,0.00,VWS V14.01,2013-03-20 09:38:00,
2013-03-20 05:40:00,63.4,62.0,29.93,NW,311,0.0,0.0,95,0.00,,CLR,0.00,0.00,VWS V14.01,2013-03-20 09:40:00,
2013-03-20 05:43:00,63.4,62.0,29.93,NW,311,0.0,0.0,95,0.00,,CLR,0.00,0.00,VWS V14.01,2013-03-20 09:43:00,
2013-03-20 05:45:00,63.4,62.0,29.93,NW,311,0.0,0.0,95,0.00,,CLR,0.00,0.00,VWS V14.01,2013-03-20 09:45:00,
2013-03-20 05:48:00,63.4,62.0,29.94,NW,311,1.0,1.0,95,0.00,,CLR,0.00,0.00,VWS V14.01,2013-03-20 09:48:00,
2013-03-20 05:50:00,63.4,62.0,29.94,NW,311,1.0,1.0,95,0.00,,CLR,0.00,0.00,VWS V14.01,2013-03-20 09:50:00,
2013-03-20 05:53:00,63.3,61.8,29.93,NW,311,1.0,2.0,95,0.00,,CLR,0.00,0.00,VWS V14.01,2013-03-20 09:53:00,
2013-03-20 05:55:00,63.3,61.8,29.93,NW,311,2.0,2.0,95,0.00,,CLR,0.00,0.00,VWS V14.01,2013-03-20 09:55:00,
2013-03-20 05:58:00,63.3,61.8,29.93,NW,311,1.0,1.0,95,0.00,,CLR,0.00,0.00,VWS V14.01,2013-03-20 09:58:00,
2013-03-20 06:00:00,63.4,62.0,29.93,NW,311,1.0,1.0,95,0.00,,CLR,0.00,0.00,VWS V14.01,2013-03-20 10:00:00,
2013-03-20 06:03:00,63.5,62.3,29.94,NW,311,0.0,0.0,96,0.00,,CLR,0.00,0.00,VWS V14.01,2013-03-20 10:03:00,
2013-03-20 06:05:00,63.5,62.3,29.94,NW,311,0.0,0.0,96,0.00,,CLR,0.00,0.00,VWS V14.01,2013-03-20 10:05:00,
2013-03-20 06:08:00,63.5,62.3,29.93,NW,311,0.0,1.0,96,0.00,,CLR,0.00,0.00,VWS V14.01,2013-03-20 10:08:00,
2013-03-20 06:10:00,63.5,62.3,29.93,NW,311,0.0,1.0,96,0.00,,CLR,0.00,0.00,VWS V14.01,2013-03-20 10:10:00,
2013-03-20 06:13:00,63.6,62.4,29.93,NW,311,0.0,2.0,96,0.00,,CLR,0.00,0.00,VWS V14.01,2013-03-20 10:13:00,
2013-03-20 06:15:00,63.6,62.4,29.93,NW,311,0.0,2.0,96,0.00,,CLR,0.00,0.00,VWS V14.01,2013-03-20 10:15:00,
2013-03-20 06:18:00,63.6,62.4,29.94,NW,311,0.0,0.0,96,0.00,,CLR,0.00,0.00,VWS V14.01,2013-03-20 10:18:00,
2013-03-20 06:20:00,63.6,62.4,29.94,NW,311,0.0,0.0,96,0.00,,CLR,0.00,0.00,VWS V14.01,2013-03-20 10:20:00,
2013-03-20 06:23:00,63.5,62.3,29.94,NW,311,0.0,0.0,96,0.00,,CLR,0.00,0.00,VWS V14.01,2013-03-20 10:23:00,
2013-03-20 06:25:00,63.6,62.4,29.94,NW,311,0.0,0.0,96,0.00,,CLR,0.00,0.00,VWS V14.01,2013-03-20 10:25:00,
2013-03-20 06:28:00,63.5,62.3,29.94,NW,311,0.0,0.0,96,0.00,,CLR,0.00,0.00,VWS V14.01,2013-03-20 10:28:00,
2013-03-20 06:30:00,63.5,62.3,29.94,NW,311,0.0,0.0,96,0.00,,CLR,0.00,0.00,VWS V14.01,2013-03-20 10:30:00,
2013-03-20 06:33:00,63.5,62.3,29.94,NW,311,0.0,0.0,96,0.00,,CLR,0.00,0.00,VWS V14.01,2013-03-20 10:33:00,
2013-03-20 06:35:00,63.5,62.3,29.94,NW,311,0.0,0.0,96,0.00,,CLR,0.00,0.00,VWS V14.01,2013-03-20 10:35:00,
2013-03-20 06:38:00,63.5,62.3,29.94,NW,311,0.0,2.0,96,0.00,,CLR,0.00,0.00,VWS V14.01,2013-03-20 10:38:00,
2013-03-20 06:40:00,63.6,62.4,29.94,NW,311,1.0,2.0,96,0.00,,CLR,0.00,0.00,VWS V14.01,2013-03-20 10:40:00,
2013-03-20 06:43:00,63.8,62.6,29.94,NW,311,0.0,2.0,96,0.00,,CLR,0.00,0.00,VWS V14.01,2013-03-20 10:43:00,
2013-03-20 06:45:00,63.8,62.6,29.94,NW,311,1.0,2.0,96,0.00,,CLR,0.00,0.00,VWS V14.01,2013-03-20 10:45:00,
2013-03-20 06:48:00,63.8,62.6,29.95,NW,311,0.0,0.0,96,0.00,,CLR,0.00,0.00,VWS V14.01,2013-03-20 10:48:00,
2013-03-20 06:50:00,63.8,62.6,29.95,NW,311,0.0,0.0,96,0.00,,CLR,0.00,0.00,VWS V14.01,2013-03-20 10:50:00,
2013-03-20 06:53:00,63.6,62.4,29.95,NW,311,0.0,0.0,96,0.00,,CLR,0.00,0.00,VWS V14.01,2013-03-20 10:53:00,
2013-03-20 06:55:00,63.6,62.4,29.95,NW,311,0.0,0.0,96,0.00,,CLR,0.00,0.00,VWS V14.01,2013-03-20 10:55:00,
2013-03-20 06:58:00,63.5,62.3,29.95,NW,311,0.0,0.0,96,0.00,,CLR,0.00,0.00,VWS V14.01,2013-03-20 10:58:00,
2013-03-20 07:00:00,63.5,62.3,29.95,NW,311,0.0,0.0,96,0.00,,CLR,0.00,0.00,VWS V14.01,2013-03-20 11:00:00,
2013-03-20 07:03:00,63.6,62.4,29.96,NW,311,0.0,0.0,96,0.00,,CLR,0.00,0.00,VWS V14.01,2013-03-20 11:03:00,
2013-03-20 07:05:00,63.6,62.4,29.96,NW,311,0.0,0.0,96,0.00,,CLR,0.00,0.00,VWS V14.01,2013-03-20 11:05:00,
2013-03-20 07:08:00,63.5,62.3,29.96,NW,311,0.0,0.0,96,0.00,,CLR,0.00,0.00,VWS V14.01,2013-03-20 11:08:00,
2013-03-20 07:10:00,63.5,62.3,29.96,NW,311,0.0,0.0,96,0.00,,CLR,0.00,0.00,VWS V14.01,2013-03-20 11:10:00,
2013-03-20 07:13:00,63.3,62.1,29.96,NW,311,0.0,0.0,96,0.00,,CLR,0.00,0.00,VWS V14.01,2013-03-20 11:13:00,
2013-03-20 07:15:00,63.3,62.1,29.96,NW,311,0.0,0.0,96,0.00,,CLR,0.00,0.00,VWS V14.01,2013-03-20 11:15:00,
2013-03-20 07:18:00,63.3,62.1,29.96,NW,311,1.0,1.0,96,0.00,,CLR,0.00,0.00,VWS V14.01,2013-03-20 11:18:00,
2013-03-20 07:20:00,63.3,62.1,29.96,NW,311,1.0,1.0,96,0.00,,CLR,0.00,0.00,VWS V14.01,2013-03-20 11:20:00,
2013-03-20 07:23:00,63.2,62.0,29.96,NW,311,0.0,0.0,96,0.00,,CLR,0.00,5.00,VWS V14.01,2013-03-20 11:23:00,
2013-03-20 07:25:00,63.2,62.0,29.96,NW,311,0.0,0.0,96,0.00,,CLR,0.00,5.00,VWS V14.01,2013-03-20 11:25:00,
2013-03-20 07:28:00,63.2,62.0,29.97,NW,311,0.0,0.0,96,0.00,,CLR,0.00,9.00,VWS V14.01,2013-03-20 11:28:00,
2013-03-20 07:30:00,63.2,62.0,29.97,NW,311,0.0,0.0,96,0.00,,CLR,0.00,9.00,VWS V14.01,2013-03-20 11:30:00,
2013-03-20 07:33:00,63.2,62.0,29.97,NW,311,0.0,0.0,96,0.00,,CLR,0.00,12.00,VWS V14.01,2013-03-20 11:33:00,
2013-03-20 07:35:00,63.2,62.0,29.97,NW,311,0.0,0.0,96,0.00,,CLR,0.00,12.00,VWS V14.01,2013-03-20 11:35:00,
2013-03-20 07:38:00,63.2,62.0,29.97,NW,311,0.0,0.0,96,0.00,,CLR,0.00,18.00,VWS V14.01,2013-03-20 11:38:00,
2013-03-20 07:40:00,63.3,62.1,29.97,NW,311,0.0,0.0,96,0.00,,CLR,0.00,18.00,VWS V14.01,2013-03-20 11:40:00,
2013-03-20 07:43:00,63.3,62.1,29.96,NW,311,0.0,0.0,96,0.00,,CLR,0.00,23.00,VWS V14.01,2013-03-20 11:43:00,
2013-03-20 07:45:00,63.3,62.1,29.96,NW,311,0.0,0.0,96,0.00,,CLR,0.00,23.00,VWS V14.01,2013-03-20 11:45:00,
2013-03-20 07:48:00,63.3,62.1,29.96,NW,311,0.0,0.0,96,0.00,,CLR,0.00,26.00,VWS V14.01,2013-03-20 11:48:00,
2013-03-20 07:50:00,63.3,62.1,29.96,NW,311,0.0,0.0,96,0.00,,CLR,0.00,26.00,VWS V14.01,2013-03-20 11:50:00,
2013-03-20 07:53:00,63.2,62.0,29.96,NW,311,0.0,0.0,96,0.00,,CLR,0.00,28.00,VWS V14.01,2013-03-20 11:53:00,
2013-03-20 07:55:00,63.2,62.0,29.96,NW,311,0.0,0.0,96,0.00,,CLR,0.00,28.00,VWS V14.01,2013-03-20 11:55:00,
2013-03-20 07:58:00,63.1,61.9,29.96,NW,311,0.0,0.0,96,0.00,,CLR,0.00,30.00,VWS V14.01,2013-03-20 11:58:00,
2013-03-20 08:00:00,63.1,61.9,29.96,NW,311,0.0,0.0,96,0.00,,CLR,0.00,30.00,VWS V14.01,2013-03-20 12:00:00,
2013-03-20 08:03:00,63.4,62.5,29.96,NW,311,0.0,0.0,97,0.00,,CLR,0.00,32.00,VWS V14.01,2013-03-20 12:03:00,
2013-03-20 08:05:00,63.3,62.4,29.96,NW,311,0.0,0.0,97,0.00,,CLR,0.00,32.00,VWS V14.01,2013-03-20 12:05:00,
2013-03-20 08:08:00,63.6,62.7,29.96,NW,311,0.0,0.0,97,0.00,,CLR,0.00,33.00,VWS V14.01,2013-03-20 12:08:00,
2013-03-20 08:10:00,63.6,62.7,29.96,NW,311,0.0,0.0,97,0.00,,CLR,0.00,33.00,VWS V14.01,2013-03-20 12:10:00,
2013-03-20 08:13:00,64.0,63.1,29.96,NW,311,0.0,0.0,97,0.00,,CLR,0.00,35.00,VWS V14.01,2013-03-20 12:13:00,
2013-03-20 08:15:00,64.0,63.1,29.96,NW,311,0.0,0.0,97,0.00,,CLR,0.00,35.00,VWS V14.01,2013-03-20 12:15:00,
2013-03-20 08:18:00,64.4,63.5,29.96,NW,311,0.0,0.0,97,0.00,,CLR,0.00,37.00,VWS V14.01,2013-03-20 12:18:00,
2013-03-20 08:20:00,64.4,63.5,29.96,NW,311,0.0,0.0,97,0.00,,CLR,0.00,37.00,VWS V14.01,2013-03-20 12:20:00,
2013-03-20 08:23:00,64.9,64.0,29.96,NW,311,0.0,0.0,97,0.00,,CLR,0.00,40.00,VWS V14.01,2013-03-20 12:23:00,
2013-03-20 08:25:00,64.9,64.0,29.96,NW,311,0.0,0.0,97,0.00,,CLR,0.00,40.00,VWS V14.01,2013-03-20 12:25:00,
2013-03-20 08:28:00,65.5,64.6,29.96,NW,311,0.0,0.0,97,0.00,,CLR,0.00,42.00,VWS V14.01,2013-03-20 12:28:00,
2013-03-20 08:30:00,65.5,64.6,29.96,NW,311,0.0,0.0,97,0.00,,CLR,0.00,42.00,VWS V14.01,2013-03-20 12:30:00,
2013-03-20 08:33:00,65.9,65.0,29.96,NW,311,0.0,0.0,97,0.00,,CLR,0.00,47.00,VWS V14.01,2013-03-20 12:33:00,
2013-03-20 08:35:00,66.0,65.1,29.96,NW,311,0.0,0.0,97,0.00,,CLR,0.00,49.00,VWS V14.01,2013-03-20 12:35:00,
2013-03-20 08:38:00,66.4,65.5,29.96,NW,311,0.0,0.0,97,0.00,,CLR,0.00,49.00,VWS V14.01,2013-03-20 12:38:00,
2013-03-20 08:40:00,66.4,65.5,29.96,NW,311,0.0,0.0,97,0.00,,CLR,0.00,49.00,VWS V14.01,2013-03-20 12:40:00,
2013-03-20 08:43:00,66.7,65.8,29.96,NW,311,0.0,0.0,97,0.00,,CLR,0.00,65.00,VWS V14.01,2013-03-20 12:43:00,
2013-03-20 08:45:00,66.7,65.8,29.96,NW,311,0.0,0.0,97,0.00,,CLR,0.00,65.00,VWS V14.01,2013-03-20 12:45:00,
2013-03-20 08:48:00,66.9,66.0,29.96,NW,311,0.0,1.0,97,0.00,,CLR,0.00,58.00,VWS V14.01,2013-03-20 12:48:00,
2013-03-20 08:50:00,66.9,66.0,29.96,NW,311,0.0,1.0,97,0.00,,CLR,0.00,58.00,VWS V14.01,2013-03-20 12:50:00,
2013-03-20 08:53:00,67.2,66.3,29.96,NW,311,0.0,1.0,97,0.00,,CLR,0.00,56.00,VWS V14.01,2013-03-20 12:53:00,
2013-03-20 08:55:00,67.3,66.4,29.96,NW,311,0.0,1.0,97,0.00,,CLR,0.00,56.00,VWS V14.01,2013-03-20 12:55:00,
2013-03-20 08:58:00,67.7,66.8,29.97,NW,311,1.0,1.0,97,0.00,,CLR,0.00,77.00,VWS V14.01,2013-03-20 12:58:00,
2013-03-20 09:00:00,67.7,66.8,29.97,NW,311,1.0,1.0,97,0.00,,CLR,0.00,77.00,VWS V14.01,2013-03-20 13:00:00,
2013-03-20 09:03:00,68.1,67.2,29.97,NW,311,0.0,1.0,97,0.00,,CLR,0.00,216.00,VWS V14.01,2013-03-20 13:03:00,
2013-03-20 09:05:00,68.2,67.3,29.97,NW,311,0.0,1.0,97,0.00,,CLR,0.00,123.00,VWS V14.01,2013-03-20 13:05:00,
2013-03-20 09:08:00,68.7,67.8,29.97,NW,311,1.0,1.0,97,0.00,,CLR,0.00,169.00,VWS V14.01,2013-03-20 13:08:00,
2013-03-20 09:10:00,68.8,67.9,29.97,NW,311,1.0,1.0,97,0.00,,CLR,0.00,146.00,VWS V14.01,2013-03-20 13:10:00,
2013-03-20 09:13:00,69.4,68.5,29.98,NW,311,1.0,1.0,97,0.00,,CLR,0.00,165.00,VWS V14.01,2013-03-20 13:13:00,
2013-03-20 09:15:00,69.5,68.6,29.98,NW,311,0.0,1.0,97,0.00,,CLR,0.00,165.00,VWS V14.01,2013-03-20 13:15:00,
2013-03-20 09:18:00,70.1,69.2,29.98,NW,311,2.0,2.0,97,0.00,,CLR,0.00,278.00,VWS V14.01,2013-03-20 13:18:00,
2013-03-20 09:20:00,70.1,68.9,29.98,NW,311,2.0,2.0,96,0.00,,CLR,0.00,278.00,VWS V14.01,2013-03-20 13:20:00,
2013-03-20 09:23:00,70.9,69.4,29.98,NW,311,1.0,2.0,95,0.00,,CLR,0.00,338.00,VWS V14.01,2013-03-20 13:23:00,
2013-03-20 09:25:00,71.0,69.5,29.98,NW,311,1.0,2.0,95,0.00,,CLR,0.00,338.00,VWS V14.01,2013-03-20 13:25:00,
2013-03-20 09:28:00,71.6,69.5,29.99,NW,311,1.0,2.0,93,0.00,,CLR,0.00,355.00,VWS V14.01,2013-03-20 13:28:00,
2013-03-20 09:30:00,71.6,69.5,29.99,NW,311,1.0,2.0,93,0.00,,CLR,0.00,355.00,VWS V14.01,2013-03-20 13:30:00,
2013-03-20 09:33:00,72.4,69.0,29.99,NW,311,0.0,1.0,89,0.00,,CLR,0.00,387.00,VWS V14.01,2013-03-20 13:33:00,
2013-03-20 09:35:00,72.4,69.0,29.99,NW,311,0.0,1.0,89,0.00,,CLR,0.00,387.00,VWS V14.01,2013-03-20 13:35:00,
2013-03-20 09:38:00,73.4,69.3,30.00,NW,319,2.0,3.0,87,0.00,,CLR,0.00,406.00,VWS V14.01,2013-03-20 13:38:00,
2013-03-20 09:40:00,73.4,69.3,30.00,NW,319,2.0,3.0,87,0.00,,CLR,0.00,410.00,VWS V14.01,2013-03-20 13:40:00,
2013-03-20 09:43:00,74.2,68.7,30.00,NE,40,0.0,4.0,83,0.00,,CLR,0.00,448.00,VWS V14.01,2013-03-20 13:43:00,
2013-03-20 09:45:00,74.2,68.7,30.00,NE,40,1.0,4.0,83,0.00,,CLR,0.00,452.00,VWS V14.01,2013-03-20 13:45:00,
2013-03-20 09:48:00,74.8,68.6,29.99,NE,40,0.0,3.0,81,0.00,,CLR,0.00,446.00,VWS V14.01,2013-03-20 13:48:00,
2013-03-20 09:50:00,74.8,68.6,30.00,NE,40,1.0,3.0,81,0.00,,CLR,0.00,446.00,VWS V14.01,2013-03-20 13:50:00,
2013-03-20 09:53:00,75.7,69.1,29.99,NNE,32,2.0,4.0,80,0.00,,CLR,0.00,510.00,VWS V14.01,2013-03-20 13:53:00,
2013-03-20 09:55:00,75.7,68.7,29.99,NW,324,4.0,4.0,79,0.00,,CLR,0.00,510.00,VWS V14.01,2013-03-20 13:55:00,
2013-03-20 09:58:00,76.2,68.5,30.00,WNW,287,2.0,2.0,77,0.00,,CLR,0.00,466.00,VWS V14.01,2013-03-20 13:58:00,
2013-03-20 10:00:00,76.2,68.5,30.00,NW,306,3.0,3.0,77,0.00,,CLR,0.00,466.00,VWS V14.01,2013-03-20 14:00:00,
2013-03-20 10:03:00,76.9,68.8,30.00,NW,325,1.0,2.0,76,0.00,,CLR,0.00,392.00,VWS V14.01,2013-03-20 14:03:00,
2013-03-20 10:05:00,76.9,68.8,30.00,NW,325,1.0,2.0,76,0.00,,CLR,0.00,392.00,VWS V14.01,2013-03-20 14:05:00,
2013-03-20 10:08:00,76.8,67.9,29.99,NW,325,1.0,1.0,74,0.00,,CLR,0.00,353.00,VWS V14.01,2013-03-20 14:08:00,
2013-03-20 10:10:00,76.7,67.8,29.99,NW,325,1.0,1.0,74,0.00,,CLR,0.00,353.00,VWS V14.01,2013-03-20 14:10:00,
2013-03-20 10:13:00,76.5,68.0,29.99,NW,325,2.0,3.0,75,0.00,,CLR,0.00,244.00,VWS V14.01,2013-03-20 14:13:00,
2013-03-20 10:15:00,76.6,68.1,29.99,NW,325,1.0,3.0,75,0.00,,CLR,0.00,244.00,VWS V14.01,2013-03-20 14:15:00,
2013-03-20 10:18:00,76.7,67.8,30.00,NNW,329,3.0,3.0,74,0.00,,CLR,0.00,179.00,VWS V14.01,2013-03-20 14:18:00,
2013-03-20 10:20:00,76.7,67.8,30.00,NNW,329,2.0,3.0,74,0.00,,CLR,0.00,174.00,VWS V14.01,2013-03-20 14:20:00,
2013-03-20 10:23:00,76.4,67.5,29.99,NNW,329,1.0,1.0,74,0.00,,CLR,0.00,171.00,VWS V14.01,2013-03-20 14:23:00,
2013-03-20 10:25:00,76.4,67.5,29.99,NNW,329,0.0,1.0,74,0.00,,CLR,0.00,171.00,VWS V14.01,2013-03-20 14:25:00,
2013-03-20 10:28:00,75.9,66.6,29.99,North,351,1.0,1.0,73,0.00,,CLR,0.00,197.00,VWS V14.01,2013-03-20 14:28:00,
2013-03-20 10:30:00,75.9,67.0,29.99,North,351,2.0,2.0,74,0.00,,CLR,0.00,197.00,VWS V14.01,2013-03-20 14:30:00,
2013-03-20 10:33:00,75.9,67.4,29.98,NW,313,2.0,3.0,75,0.00,,CLR,0.00,213.00,VWS V14.01,2013-03-20 14:33:00,
2013-03-20 10:35:00,75.9,67.4,29.98,NW,313,1.0,3.0,75,0.00,,CLR,0.00,213.00,VWS V14.01,2013-03-20 14:35:00,
2013-03-20 10:38:00,76.0,67.1,29.98,NW,313,1.0,3.0,74,0.00,,CLR,0.00,218.00,VWS V14.01,2013-03-20 14:38:00,
2013-03-20 10:40:00,76.0,67.1,29.98,NW,313,0.0,3.0,74,0.00,,CLR,0.00,218.00,VWS V14.01,2013-03-20 14:40:00,
2013-03-20 10:43:00,76.0,65.9,29.98,NW,313,0.0,0.0,71,0.00,,CLR,0.00,255.00,VWS V14.01,2013-03-20 14:43:00,
2013-03-20 10:45:00,76.0,65.9,29.98,NW,313,0.0,0.0,71,0.00,,CLR,0.00,255.00,VWS V14.01,2013-03-20 14:45:00,
2013-03-20 10:48:00,76.1,66.4,29.98,NW,313,1.0,1.0,72,0.00,,CLR,0.00,262.00,VWS V14.01,2013-03-20 14:48:00,
2013-03-20 10:50:00,76.1,66.4,29.98,NW,313,1.0,1.0,72,0.00,,CLR,0.00,267.00,VWS V14.01,2013-03-20 14:50:00,
2013-03-20 10:53:00,76.3,66.6,29.98,SE,128,2.0,3.0,72,0.00,,CLR,0.00,265.00,VWS V14.01,2013-03-20 14:53:00,
2013-03-20 10:55:00,76.3,66.6,29.98,SE,128,2.0,3.0,72,0.00,,CLR,0.00,265.00,VWS V14.01,2013-03-20 14:55:00,
2013-03-20 10:59:00,76.6,66.9,29.98,SE,128,1.0,1.0,72,0.00,,CLR,0.00,330.00,VWS V14.01,2013-03-20 14:59:00,
2013-03-20 11:00:00,76.6,66.9,29.98,SSE,153,1.0,2.0,72,0.00,,CLR,0.00,330.00,VWS V14.01,2013-03-20 15:00:00,
2013-03-20 11:03:00,77.0,66.5,29.98,SSE,153,1.0,2.0,70,0.00,,CLR,0.00,346.00,VWS V14.01,2013-03-20 15:03:00,
2013-03-20 11:05:00,77.0,66.9,29.98,SSE,153,1.0,2.0,71,0.00,,CLR,0.00,346.00,VWS V14.01,2013-03-20 15:05:00,
2013-03-20 11:08:00,78.0,67.4,29.98,WSW,255,3.0,5.0,70,0.00,,CLR,0.00,833.00,VWS V14.01,2013-03-20 15:08:00,
2013-03-20 11:10:00,78.0,67.4,29.97,WSW,255,3.0,4.0,70,0.00,,CLR,0.00,833.00,VWS V14.01,2013-03-20 15:10:00,
2013-03-20 11:13:00,78.6,67.2,29.98,ESE,115,3.0,3.0,68,0.00,,CLR,0.00,396.00,VWS V14.01,2013-03-20 15:13:00,
2013-03-20 11:15:00,78.6,67.2,29.98,SE,133,3.0,3.0,68,0.00,,CLR,0.00,396.00,VWS V14.01,2013-03-20 15:15:00,
2013-03-20 11:19:00,78.3,66.4,29.98,SE,135,1.0,2.0,67,0.00,,CLR,0.00,348.00,VWS V14.01,2013-03-20 15:19:00,
2013-03-20 11:20:00,78.3,66.4,29.98,SE,135,1.0,2.0,67,0.00,,CLR,0.00,348.00,VWS V14.01,2013-03-20 15:20:00,
2013-03-20 11:24:00,78.5,65.8,29.98,SSW,205,5.0,5.0,65,0.00,,CLR,0.00,295.00,VWS V14.01,2013-03-20 15:24:00,
2013-03-20 11:25:00,78.5,65.8,29.98,SSW,205,5.0,5.0,65,0.00,,CLR,0.00,295.00,VWS V14.01,2013-03-20 15:25:00,
2013-03-20 11:29:00,78.2,66.4,29.98,SSW,204,2.0,2.0,67,0.00,,CLR,0.00,425.00,VWS V14.01,2013-03-20 15:29:00,
2013-03-20 11:30:00,78.2,66.4,29.98,SSW,204,2.0,2.0,67,0.00,,CLR,0.00,425.00,VWS V14.01,2013-03-20 15:30:00,
2013-03-20 11:34:00,78.6,66.3,29.98,South,189,3.0,4.0,66,0.00,,CLR,0.00,482.00,VWS V14.01,2013-03-20 15:34:00,
2013-03-20 11:35:00,78.6,66.3,29.98,South,189,3.0,4.0,66,0.00,,CLR,0.00,482.00,VWS V14.01,2013-03-20 15:35:00,
2013-03-20 11:39:00,78.9,65.7,29.97,SSE,159,1.0,2.0,64,0.00,,CLR,0.00,420.00,VWS V14.01,2013-03-20 15:39:00,
2013-03-20 11:40:00,78.9,65.7,29.97,SSE,159,1.0,2.0,64,0.00,,CLR,0.00,420.00,VWS V14.01,2013-03-20 15:40:00,
2013-03-20 11:44:00,79.5,66.3,29.97,South,175,2.0,6.0,64,0.00,,CLR,0.00,670.00,VWS V14.01,2013-03-20 15:44:00,
2013-03-20 11:45:00,79.5,66.3,29.97,South,175,2.0,6.0,64,0.00,,CLR,0.00,670.00,VWS V14.01,2013-03-20 15:45:00,
2013-03-20 11:49:00,80.3,66.1,29.96,SSE,159,3.0,4.0,62,0.00,,CLR,0.00,606.00,VWS V14.01,2013-03-20 15:49:00,
2013-03-20 11:50:00,80.3,66.1,29.96,SSE,159,3.0,4.0,62,0.00,,CLR,0.00,606.00,VWS V14.01,2013-03-20 15:50:00,
2013-03-20 11:54:00,80.7,66.5,29.96,South,173,3.0,3.0,62,0.00,,CLR,0.00,817.00,VWS V14.01,2013-03-20 15:54:00,
2013-03-20 11:55:00,80.7,66.5,29.96,South,173,3.0,3.0,62,0.00,,CLR,0.00,817.00,VWS V14.01,2013-03-20 15:55:00,
2013-03-20 11:59:00,81.0,66.8,29.96,WSW,239,2.0,3.0,62,0.00,,CLR,0.00,847.00,VWS V14.01,2013-03-20 15:59:00,
2013-03-20 12:00:00,81.0,66.8,29.96,WSW,239,2.0,3.0,62,0.00,,CLR,0.00,847.00,VWS V14.01,2013-03-20 16:00:00,
2013-03-20 12:04:00,81.7,67.4,29.96,WSW,253,5.0,7.0,62,0.00,,CLR,0.00,919.00,VWS V14.01,2013-03-20 16:04:00,
2013-03-20 12:05:00,81.7,67.4,29.96,WSW,252,6.0,7.0,62,0.00,,CLR,0.00,898.00,VWS V14.01,2013-03-20 16:05:00,
2013-03-20 12:09:00,82.2,66.5,29.96,WSW,250,6.0,6.0,59,0.00,,CLR,0.00,918.00,VWS V14.01,2013-03-20 16:09:00,
2013-03-20 12:10:00,82.2,66.5,29.96,WSW,250,6.0,6.0,59,0.00,,CLR,0.00,918.00,VWS V14.01,2013-03-20 16:10:00,
2013-03-20 12:14:00,81.5,66.3,29.96,SSE,158,2.0,4.0,60,0.00,,CLR,0.00,304.00,VWS V14.01,2013-03-20 16:14:00,
2013-03-20 12:15:00,81.5,66.3,29.96,SSE,158,2.0,4.0,60,0.00,,CLR,0.00,304.00,VWS V14.01,2013-03-20 16:15:00,
2013-03-20 12:19:00,81.3,68.0,29.96,South,174,2.0,5.0,64,0.00,,CLR,0.00,835.00,VWS V14.01,2013-03-20 16:19:00,
2013-03-20 12:20:00,81.3,68.0,29.96,South,173,4.0,5.0,64,0.00,,CLR,0.00,835.00,VWS V14.01,2013-03-20 16:20:00,
2013-03-20 12:24:00,81.9,67.1,29.96,SSW,194,3.0,4.0,61,0.00,,CLR,0.00,490.00,VWS V14.01,2013-03-20 16:24:00,
2013-03-20 12:25:00,81.9,67.1,29.96,South,180,2.0,4.0,61,0.00,,CLR,0.00,490.00,VWS V14.01,2013-03-20 16:25:00,
2013-03-20 12:29:00,81.8,66.6,29.96,SSE,158,1.0,3.0,60,0.00,,CLR,0.00,476.00,VWS V14.01,2013-03-20 16:29:00,
2013-03-20 12:30:00,81.8,66.6,29.96,SSE,158,1.0,4.0,60,0.00,,CLR,0.00,476.00,VWS V14.01,2013-03-20 16:30:00,
2013-03-20 12:34:00,81.5,68.2,29.96,SSE,157,2.0,2.0,64,0.00,,CLR,0.00,675.00,VWS V14.01,2013-03-20 16:34:00,
2013-03-20 12:35:00,81.5,68.2,29.96,ESE,111,1.0,2.0,64,0.00,,CLR,0.00,675.00,VWS V14.01,2013-03-20 16:35:00,
2013-03-20 12:39:00,81.2,66.9,29.96,SW,221,5.0,7.0,62,0.00,,FEW033,0.00,508.00,VWS V14.01,2013-03-20 16:39:00,
2013-03-20 12:40:00,81.2,66.9,29.96,SW,220,4.0,7.0,62,0.00,,CLR,0.00,508.00,VWS V14.01,2013-03-20 16:40:00,
2013-03-20 12:44:00,81.4,67.1,29.95,East,92,5.0,5.0,62,0.00,,FEW033,0.00,1035.00,VWS V14.01,2013-03-20 16:44:00,
2013-03-20 12:45:00,81.4,67.1,29.95,SE,143,4.0,5.0,62,0.00,,CLR,0.00,1035.00,VWS V14.01,2013-03-20 16:45:00,
2013-03-20 12:49:00,81.5,67.2,29.95,SW,219,1.0,3.0,62,0.00,,FEW033,0.00,327.00,VWS V14.01,2013-03-20 16:49:00,
2013-03-20 12:50:00,81.5,67.2,29.95,SW,219,0.0,3.0,62,0.00,,CLR,0.00,327.00,VWS V14.01,2013-03-20 16:50:00,
2013-03-20 12:54:00,81.6,67.8,29.95,SSE,165,5.0,6.0,63,0.00,,FEW033,0.00,759.00,VWS V14.01,2013-03-20 16:54:00,
2013-03-20 12:55:00,81.6,67.8,29.95,SSE,165,5.0,6.0,63,0.00,,CLR,0.00,759.00,VWS V14.01,2013-03-20 16:55:00,
2013-03-20 12:59:00,81.8,65.6,29.94,SSW,207,1.0,3.0,58,0.00,,FEW033,0.00,455.00,VWS V14.01,2013-03-20 16:59:00,
2013-03-20 13:00:00,81.8,65.6,29.94,SSW,207,0.0,4.0,58,0.00,,CLR,0.00,455.00,VWS V14.01,2013-03-20 17:00:00,
2013-03-20 13:04:00,82.3,66.1,29.94,SW,236,2.0,4.0,58,0.00,,FEW033,0.00,524.00,VWS V14.01,2013-03-20 17:04:00,
2013-03-20 13:05:00,82.3,66.1,29.94,SW,236,2.0,4.0,58,0.00,,CLR,0.00,524.00,VWS V14.01,2013-03-20 17:05:00,
2013-03-20 13:09:00,82.8,66.5,29.94,WSW,246,3.0,7.0,58,0.00,,FEW033,0.00,503.00,VWS V14.01,2013-03-20 17:09:00,
2013-03-20 13:10:00,82.8,66.5,29.94,WSW,246,3.0,7.0,58,0.00,,CLR,0.00,503.00,VWS V14.01,2013-03-20 17:10:00,
2013-03-20 13:14:00,82.4,68.6,29.93,SSE,153,1.0,2.0,63,0.00,,FEW033,0.00,628.00,VWS V14.01,2013-03-20 17:14:00,
2013-03-20 13:15:00,82.4,68.6,29.93,SSE,153,1.0,2.0,63,0.00,,CLR,0.00,628.00,VWS V14.01,2013-03-20 17:15:00,
2013-03-20 13:19:00,82.5,68.6,29.93,SSE,153,2.0,7.0,63,0.00,,FEW033,0.00,763.00,VWS V14.01,2013-03-20 17:19:00,
2013-03-20 13:20:00,82.5,68.6,29.93,SSW,194,4.0,7.0,63,0.00,,CLR,0.00,763.00,VWS V14.01,2013-03-20 17:20:00,
2013-03-20 13:24:00,82.7,68.4,29.92,SSW,192,3.0,8.0,62,0.00,,FEW033,0.00,1081.00,VWS V14.01,2013-03-20 17:24:00,
2013-03-20 13:25:00,82.7,68.4,29.92,SSW,192,3.0,8.0,62,0.00,,CLR,0.00,1081.00,VWS V14.01,2013-03-20 17:25:00,
2013-03-20 13:29:00,83.5,69.1,29.91,SSE,167,3.0,9.0,62,0.00,,FEW033,0.00,1088.00,VWS V14.01,2013-03-20 17:29:00,
2013-03-20 13:30:00,83.5,69.1,29.91,SSE,167,4.0,9.0,62,0.00,,CLR,0.00,1088.00,VWS V14.01,2013-03-20 17:30:00,
2013-03-20 13:34:00,83.4,67.6,29.91,ENE,69,3.0,4.0,59,0.00,,FEW033,0.00,849.00,VWS V14.01,2013-03-20 17:34:00,
2013-03-20 13:35:00,83.5,67.7,29.91,ENE,72,3.0,4.0,59,0.00,,CLR,0.00,849.00,VWS V14.01,2013-03-20 17:35:00,
2013-03-20 13:39:00,83.4,68.1,29.91,SE,130,4.0,4.0,60,0.00,,BKN049,0.00,504.00,VWS V14.01,2013-03-20 17:39:00,
2013-03-20 13:40:00,83.4,68.1,29.91,SE,130,4.0,4.0,60,0.00,,CLR,0.00,504.00,VWS V14.01,2013-03-20 17:40:00,
2013-03-20 13:44:00,83.0,67.2,29.91,SSE,147,2.0,6.0,59,0.00,,BKN049,0.00,598.00,VWS V14.01,2013-03-20 17:44:00,
2013-03-20 13:45:00,83.0,67.2,29.91,SSE,152,1.0,6.0,59,0.00,,CLR,0.00,1005.00,VWS V14.01,2013-03-20 17:45:00,
2013-03-20 13:49:00,83.3,68.5,29.90,SE,137,4.0,6.0,61,0.00,,BKN049,0.00,998.00,VWS V14.01,2013-03-20 17:49:00,
2013-03-20 13:50:00,83.3,68.5,29.90,SE,140,5.0,6.0,61,0.00,,CLR,0.00,998.00,VWS V14.01,2013-03-20 17:50:00,
2013-03-20 13:54:00,83.2,67.4,29.90,SE,130,7.0,8.0,59,0.00,,BKN049,0.00,374.00,VWS V14.01,2013-03-20 17:54:00,
2013-03-20 13:55:00,83.2,67.4,29.90,SE,130,7.0,8.0,59,0.00,,CLR,0.00,374.00,VWS V14.01,2013-03-20 17:55:00,
2013-03-20 13:59:00,83.6,67.3,29.89,SSW,198,7.0,10.0,58,0.00,,BKN049,0.00,1078.00,VWS V14.01,2013-03-20 17:59:00,
2013-03-20 14:00:00,83.6,67.3,29.89,SSW,198,7.0,10.0,58,0.00,,CLR,0.00,1078.00,VWS V14.01,2013-03-20 18:00:00,
2013-03-20 14:04:00,84.3,67.9,29.89,SE,129,4.0,7.0,58,0.00,,BKN049,0.00,1056.00,VWS V14.01,2013-03-20 18:04:00,
2013-03-20 14:05:00,84.3,67.9,29.89,SE,129,4.0,7.0,58,0.00,,CLR,0.00,1056.00,VWS V14.01,2013-03-20 18:05:00,
2013-03-20 14:09:00,84.7,67.8,29.88,SSW,209,4.0,8.0,57,0.00,,BKN049,0.00,1025.00,VWS V14.01,2013-03-20 18:09:00,
2013-03-20 14:10:00,84.7,67.8,29.88,SSW,209,4.0,8.0,57,0.00,,CLR,0.00,1025.00,VWS V14.01,2013-03-20 18:10:00,
2013-03-20 14:14:00,85.6,67.6,29.88,South,171,4.0,11.0,55,0.00,,BKN049,0.00,1030.00,VWS V14.01,2013-03-20 18:14:00,
2013-03-20 14:15:00,85.6,67.6,29.88,SSE,159,3.0,11.0,55,0.00,,CLR,0.00,1030.00,VWS V14.01,2013-03-20 18:15:00,
2013-03-20 14:19:00,84.6,67.7,29.88,WSW,241,1.0,4.0,57,0.00,,BKN049,0.00,780.00,VWS V14.01,2013-03-20 18:19:00,
2013-03-20 14:20:00,84.6,67.7,29.88,WSW,241,1.0,4.0,57,0.00,,CLR,0.00,780.00,VWS V14.01,2013-03-20 18:20:00,
2013-03-20 14:24:00,85.1,67.7,29.88,SSE,167,5.0,5.0,56,0.00,,BKN049,0.00,1023.00,VWS V14.01,2013-03-20 18:24:00,
2013-03-20 14:25:00,85.1,67.7,29.88,North,360,5.0,5.0,56,0.00,,CLR,0.00,1023.00,VWS V14.01,2013-03-20 18:25:00,
2013-03-20 14:29:00,85.7,67.7,29.88,South,180,5.0,8.0,55,0.00,,BKN049,0.00,1016.00,VWS V14.01,2013-03-20 18:29:00,
2013-03-20 14:30:00,85.7,67.2,29.88,SSW,213,6.0,8.0,54,0.00,,CLR,0.00,1016.00,VWS V14.01,2013-03-20 18:30:00,
2013-03-20 14:34:00,85.9,66.8,29.87,SSE,159,3.0,9.0,53,0.00,,BKN049,0.00,930.00,VWS V14.01,2013-03-20 18:34:00,
2013-03-20 14:35:00,85.9,66.8,29.87,South,170,4.0,9.0,53,0.00,,CLR,0.00,930.00,VWS V14.01,2013-03-20 18:35:00,
2013-03-20 14:38:00,85.5,67.5,29.87,SE,144,4.0,10.0,55,0.00,,SCT050,0.00,926.00,VWS V14.01,2013-03-20 18:38:00,
2013-03-20 14:40:00,85.5,67.5,29.87,SE,144,4.0,10.0,55,0.00,,CLR,0.00,926.00,VWS V14.01,2013-03-20 18:40:00,
2013-03-20 14:43:00,84.9,66.9,29.87,ESE,119,2.0,6.0,55,0.00,,SCT050,0.00,911.00,VWS V14.01,2013-03-20 18:43:00,
2013-03-20 14:45:00,84.9,66.9,29.87,ESE,119,1.0,5.0,55,0.00,,CLR,0.00,911.00,VWS V14.01,2013-03-20 18:45:00,
2013-03-20 14:48:00,85.3,65.1,29.87,WSW,257,4.0,7.0,51,0.00,,SCT050,0.00,870.00,VWS V14.01,2013-03-20 18:48:00,
2013-03-20 14:50:00,85.3,65.1,29.87,WSW,257,3.0,6.0,51,0.00,,CLR,0.00,895.00,VWS V14.01,2013-03-20 18:50:00,
2013-03-20 14:53:00,86.6,66.3,29.87,SSW,205,5.0,11.0,51,0.00,,SCT050,0.00,905.00,VWS V14.01,2013-03-20 18:53:00,
2013-03-20 14:55:00,86.6,66.3,29.87,South,173,5.0,11.0,51,0.00,,CLR,0.00,905.00,VWS V14.01,2013-03-20 18:55:00,
2013-03-20 14:58:00,86.3,66.6,29.86,WNW,284,1.0,6.0,52,0.00,,SCT050,0.00,925.00,VWS V14.01,2013-03-20 18:58:00,
2013-03-20 15:00:00,86.3,66.6,29.86,WNW,284,2.0,6.0,52,0.00,,CLR,0.00,925.00,VWS V14.01,2013-03-20 19:00:00,
2013-03-20 15:03:00,86.8,64.8,29.86,North,350,0.0,6.0,48,0.00,,SCT050,0.00,888.00,VWS V14.01,2013-03-20 19:03:00,
2013-03-20 15:05:00,86.8,63.6,29.86,North,350,1.0,6.0,46,0.00,,CLR,0.00,888.00,VWS V14.01,2013-03-20 19:05:00,
2013-03-20 15:08:00,87.7,64.4,29.86,West,268,4.0,7.0,46,0.00,,SCT050,0.00,863.00,VWS V14.01,2013-03-20 19:08:00,
2013-03-20 15:10:00,87.7,64.4,29.86,West,275,4.0,7.0,46,0.00,,CLR,0.00,863.00,VWS V14.01,2013-03-20 19:10:00,
2013-03-20 15:14:00,88.1,64.1,29.86,WNW,288,4.0,6.0,45,0.00,,SCT050,0.00,863.00,VWS V14.01,2013-03-20 19:14:00,
2013-03-20 15:15:00,88.1,64.1,29.86,WSW,237,5.0,6.0,45,0.00,,CLR,0.00,863.00,VWS V14.01,2013-03-20 19:15:00,
2013-03-20 15:19:00,87.9,63.9,29.85,WNW,295,2.0,2.0,45,0.00,,SCT050,0.00,849.00,VWS V14.01,2013-03-20 19:19:00,
2013-03-20 15:20:00,87.8,63.8,29.85,WNW,295,1.0,2.0,45,0.00,,CLR,0.00,849.00,VWS V14.01,2013-03-20 19:20:00,
2013-03-20 15:24:00,88.0,63.4,29.85,WSW,250,5.0,8.0,44,0.00,,SCT050,0.00,851.00,VWS V14.01,2013-03-20 19:24:00,
2013-03-20 15:25:00,88.0,63.4,29.85,WSW,250,4.0,7.0,44,0.00,,CLR,0.00,844.00,VWS V14.01,2013-03-20 19:25:00,
2013-03-20 15:29:00,88.2,64.2,29.85,SW,234,4.0,7.0,45,0.00,,SCT050,0.00,856.00,VWS V14.01,2013-03-20 19:29:00,
2013-03-20 15:30:00,88.2,64.2,29.85,SW,234,2.0,7.0,45,0.00,,CLR,0.00,856.00,VWS V14.01,2013-03-20 19:30:00,
2013-03-20 15:34:00,87.3,64.0,29.85,WSW,240,1.0,2.0,46,0.00,,SCT050,0.00,257.00,VWS V14.01,2013-03-20 19:34:00,
2013-03-20 15:35:00,87.3,64.0,29.85,WSW,240,1.0,2.0,46,0.00,,CLR,0.00,257.00,VWS V14.01,2013-03-20 19:35:00,
2013-03-20 15:39:00,87.5,64.8,29.85,NNW,334,5.0,12.0,47,0.00,,FEW046,0.00,824.00,VWS V14.01,2013-03-20 19:39:00,
2013-03-20 15:40:00,87.5,64.8,29.85,NNW,333,3.0,12.0,47,0.00,,CLR,0.00,824.00,VWS V14.01,2013-03-20 19:40:00,
2013-03-20 15:43:00,86.8,64.8,29.85,West,264,3.0,5.0,48,0.00,,FEW046,0.00,888.00,VWS V14.01,2013-03-20 19:43:00,
2013-03-20 15:45:00,86.8,64.8,29.85,West,264,3.0,5.0,48,0.00,,CLR,0.00,888.00,VWS V14.01,2013-03-20 19:45:00,
2013-03-20 15:48:00,87.7,65.0,29.85,West,268,3.0,6.0,47,0.00,,FEW046,0.00,907.00,VWS V14.01,2013-03-20 19:48:00,
2013-03-20 15:50:00,87.7,65.0,29.85,West,270,5.0,5.0,47,0.00,,CLR,0.00,907.00,VWS V14.01,2013-03-20 19:50:00,
2013-03-20 15:53:00,88.3,65.5,29.84,West,267,5.0,9.0,47,0.00,,FEW046,0.00,376.00,VWS V14.01,2013-03-20 19:53:00,
2013-03-20 15:55:00,88.3,65.5,29.84,WNW,289,5.0,9.0,47,0.00,,CLR,0.00,376.00,VWS V14.01,2013-03-20 19:55:00,
2013-03-20 15:58:00,88.1,65.3,29.84,NW,311,7.0,10.0,47,0.00,,FEW046,0.00,302.00,VWS V14.01,2013-03-20 19:58:00,
2013-03-20 16:00:00,88.1,65.3,29.84,NNW,336,6.0,10.0,47,0.00,,CLR,0.00,921.00,VWS V14.01,2013-03-20 20:00:00,
2013-03-20 16:03:00,87.8,65.1,29.84,WSW,242,6.0,12.0,47,0.00,,FEW046,0.00,926.00,VWS V14.01,2013-03-20 20:03:00,
2013-03-20 16:05:00,87.8,65.1,29.84,WSW,242,6.0,10.0,47,0.00,,CLR,0.00,926.00,VWS V14.01,2013-03-20 20:05:00,
2013-03-20 16:08:00,87.1,65.1,29.84,WNW,293,5.0,7.0,48,0.00,,FEW046,0.00,183.00,VWS V14.01,2013-03-20 20:08:00,
2013-03-20 16:10:00,87.1,65.1,29.84,NW,313,6.0,6.0,48,0.00,,CLR,0.00,183.00,VWS V14.01,2013-03-20 20:10:00,
2013-03-20 16:13:00,86.6,64.0,29.84,West,262,6.0,7.0,47,0.00,,FEW046,0.00,230.00,VWS V14.01,2013-03-20 20:13:00,
2013-03-20 16:15:00,86.6,64.0,29.84,West,261,5.0,7.0,47,0.00,,CLR,0.00,230.00,VWS V14.01,2013-03-20 20:15:00,
2013-03-20 16:18:00,86.1,64.7,29.84,West,269,4.0,5.0,49,0.00,,FEW046,0.00,193.00,VWS V14.01,2013-03-20 20:18:00,
2013-03-20 16:20:00,86.0,64.6,29.84,West,270,2.0,5.0,49,0.00,,CLR,0.00,193.00,VWS V14.01,2013-03-20 20:20:00,
2013-03-20 16:23:00,85.2,63.9,29.83,West,259,2.0,4.0,49,0.00,,FEW046,0.00,218.00,VWS V14.01,2013-03-20 20:23:00,
2013-03-20 16:25:00,85.2,63.9,29.83,West,259,1.0,4.0,49,0.00,,CLR,0.00,218.00,VWS V14.01,2013-03-20 20:25:00,
2013-03-20 16:28:00,85.4,64.1,29.83,WSW,240,1.0,4.0,49,0.00,,FEW046,0.00,199.00,VWS V14.01,2013-03-20 20:28:00,
2013-03-20 16:30:00,85.4,64.1,29.83,WSW,240,1.0,4.0,49,0.00,,CLR,0.00,214.00,VWS V14.01,2013-03-20 20:30:00,
2013-03-20 16:33:00,85.9,64.0,29.83,West,276,1.0,4.0,48,0.00,,FEW046,0.00,731.00,VWS V14.01,2013-03-20 20:33:00,
2013-03-20 16:35:00,86.0,64.0,29.83,West,276,1.0,4.0,48,0.00,,CLR,0.00,726.00,VWS V14.01,2013-03-20 20:35:00,
2013-03-20 16:38:00,86.6,68.0,29.83,NNW,347,2.0,5.0,54,0.00,,FEW055,0.00,721.00,VWS V14.01,2013-03-20 20:38:00,
2013-03-20 16:40:00,86.5,67.9,29.83,NNW,347,1.0,5.0,54,0.00,,CLR,0.00,721.00,VWS V14.01,2013-03-20 20:40:00,
2013-03-20 16:43:00,86.0,64.0,29.83,NNW,348,4.0,6.0,48,0.00,,FEW055,0.00,629.00,VWS V14.01,2013-03-20 20:43:00,
2013-03-20 16:45:00,86.1,64.7,29.83,NNW,337,5.0,6.0,49,0.00,,CLR,0.00,629.00,VWS V14.01,2013-03-20 20:45:00,
2013-03-20 16:48:00,86.6,64.0,29.83,SE,126,3.0,4.0,47,0.00,,FEW055,0.00,211.00,VWS V14.01,2013-03-20 20:48:00,
2013-03-20 16:50:00,86.6,62.8,29.83,WSW,237,3.0,4.0,45,0.00,,CLR,0.00,211.00,VWS V14.01,2013-03-20 20:50:00,
2013-03-20 16:53:00,85.9,62.7,29.82,WSW,242,3.0,7.0,46,0.00,,FEW055,0.00,188.00,VWS V14.01,2013-03-20 20:53:00,
2013-03-20 16:55:00,85.9,62.7,29.82,SSW,194,5.0,7.0,46,0.00,,CLR,0.00,188.00,VWS V14.01,2013-03-20 20:55:00,
2013-03-20 16:58:00,84.5,67.1,29.82,SSW,194,8.0,10.0,56,0.00,,FEW055,0.00,645.00,VWS V14.01,2013-03-20 20:58:00,
2013-03-20 17:00:00,84.4,67.0,29.82,SSW,192,7.0,10.0,56,0.00,,CLR,0.00,645.00,VWS V14.01,2013-03-20 21:00:00,
2013-03-20 17:04:00,83.1,66.8,29.82,WSW,246,1.0,3.0,58,0.00,,FEW055,0.00,135.00,VWS V14.01,2013-03-20 21:04:00,
2013-03-20 17:05:00,83.1,66.8,29.82,WSW,246,0.0,2.0,58,0.00,,CLR,0.00,135.00,VWS V14.01,2013-03-20 21:05:00,
2013-03-20 17:08:00,82.1,67.3,29.82,SSW,213,1.0,6.0,61,0.00,,FEW055,0.00,70.00,VWS V14.01,2013-03-20 21:08:00,
2013-03-20 17:10:00,82.0,67.2,29.82,SSW,193,3.0,6.0,61,0.00,,CLR,0.00,65.00,VWS V14.01,2013-03-20 21:10:00,
2013-03-20 17:13:00,81.3,67.5,29.82,SSE,160,2.0,4.0,63,0.00,,FEW055,0.00,53.00,VWS V14.01,2013-03-20 21:13:00,
2013-03-20 17:15:00,81.3,67.5,29.82,SSE,160,3.0,4.0,63,0.00,,CLR,0.00,53.00,VWS V14.01,2013-03-20 21:15:00,
2013-03-20 17:19:00,80.9,67.6,29.82,SSE,157,6.0,12.0,64,0.00,,FEW055,0.00,35.00,VWS V14.01,2013-03-20 21:19:00,
2013-03-20 17:20:00,80.8,67.5,29.82,South,169,4.0,12.0,64,0.00,,CLR,0.00,35.00,VWS V14.01,2013-03-20 21:20:00,
2013-03-20 17:23:00,80.3,68.8,29.82,South,169,5.0,8.0,68,0.00,,FEW055,0.00,18.00,VWS V14.01,2013-03-20 21:23:00,
2013-03-20 17:25:00,80.3,68.3,29.82,SSE,160,4.0,7.0,67,0.00,,CLR,0.00,18.00,VWS V14.01,2013-03-20 21:25:00,
2013-03-20 17:28:00,79.6,68.5,29.84,North,355,6.0,12.0,69,0.04,,FEW055,0.05,14.00,VWS V14.01,2013-03-20 21:28:00,
2013-03-20 17:30:00,79.5,68.4,29.84,NNW,342,8.0,12.0,69,0.05,,CLR,0.05,14.00,VWS V14.01,2013-03-20 21:30:00,
2013-03-20 17:33:00,77.4,66.0,29.84,SSE,148,5.0,6.0,68,0.26,,FEW055,0.26,25.00,VWS V14.01,2013-03-20 21:33:00,
2013-03-20 17:35:00,77.3,65.9,29.84,SE,126,6.0,6.0,68,0.26,,CLR,0.26,25.00,VWS V14.01,2013-03-20 21:35:00,
2013-03-20 17:38:00,75.2,66.7,29.82,SSW,210,5.0,9.0,75,0.37,,FEW065,0.37,39.00,VWS V14.01,2013-03-20 21:38:00,
2013-03-20 17:40:00,75.1,66.6,29.82,SSW,192,6.0,9.0,75,0.37,,CLR,0.37,40.00,VWS V14.01,2013-03-20 21:40:00,
2013-03-20 17:43:00,73.7,67.2,29.82,SSW,201,8.0,12.0,80,0.39,,FEW065,0.39,60.00,VWS V14.01,2013-03-20 21:43:00,
2013-03-20 17:45:00,73.7,67.2,29.82,SSW,193,7.0,12.0,80,0.39,,CLR,0.39,60.00,VWS V14.01,2013-03-20 21:45:00,
2013-03-20 17:48:00,72.6,67.2,29.82,SW,214,7.0,7.0,83,0.39,,FEW065,0.39,120.00,VWS V14.01,2013-03-20 21:48:00,
2013-03-20 17:50:00,72.6,67.2,29.82,SW,215,7.0,7.0,83,0.39,,CLR,0.39,120.00,VWS V14.01,2013-03-20 21:50:00,
2013-03-20 17:53:00,72.4,68.0,29.83,SSE,160,1.0,4.0,86,0.39,,FEW065,0.39,72.00,VWS V14.01,2013-03-20 21:53:00,
2013-03-20 17:55:00,72.4,68.0,29.83,South,173,1.0,4.0,86,0.39,,CLR,0.39,72.00,VWS V14.01,2013-03-20 21:55:00,
2013-03-20 17:59:00,72.6,69.2,29.83,SSE,153,5.0,5.0,89,0.39,, +RA,0.39,77.00,VWS V14.01,2013-03-20 21:59:00,
2013-03-20 18:00:00,72.6,69.2,29.83,South,170,4.0,5.0,89,0.39,,CLR,0.39,77.00,VWS V14.01,2013-03-20 22:00:00,
2013-03-20 18:04:00,72.1,68.7,29.84,WSW,242,0.0,3.0,89,0.39,, +RA,0.39,40.00,VWS V14.01,2013-03-20 22:04:00,
2013-03-20 18:05:00,72.1,68.7,29.84,WSW,242,0.0,3.0,89,0.39,,CLR,0.39,40.00,VWS V14.01,2013-03-20 22:05:00,
2013-03-20 18:09:00,71.5,69.1,29.84,WSW,252,2.0,3.0,92,0.39,, +RA,0.39,32.00,VWS V14.01,2013-03-20 22:09:00,
2013-03-20 18:10:00,71.4,69.0,29.84,WSW,250,2.0,3.0,92,0.39,,CLR,0.39,32.00,VWS V14.01,2013-03-20 22:10:00,
2013-03-20 18:14:00,71.2,69.1,29.84,SW,227,0.0,0.0,93,0.39,, +RA,0.39,44.00,VWS V14.01,2013-03-20 22:14:00,
2013-03-20 18:15:00,71.2,69.1,29.84,SW,227,0.0,0.0,93,0.39,,CLR,0.39,46.00,VWS V14.01,2013-03-20 22:15:00,
2013-03-20 18:18:00,71.3,69.5,29.84,SW,228,1.0,2.0,94,0.39,, +RA,0.39,62.00,VWS V14.01,2013-03-20 22:18:00,
2013-03-20 18:20:00,71.3,69.5,29.84,SW,228,1.0,2.0,94,0.39,,CLR,0.39,62.00,VWS V14.01,2013-03-20 22:20:00,
2013-03-20 18:23:00,71.4,69.6,29.84,SW,228,1.0,2.0,94,0.39,, +RA,0.39,76.00,VWS V14.01,2013-03-20 22:23:00,
2013-03-20 18:25:00,71.4,69.6,29.84,SW,228,2.0,2.0,94,0.39,,CLR,0.39,76.00,VWS V14.01,2013-03-20 22:25:00,
2013-03-20 18:28:00,71.3,69.5,29.85,SSW,213,1.0,3.0,94,0.39,, +RA,0.39,83.00,VWS V14.01,2013-03-20 22:28:00,
2013-03-20 18:30:00,71.3,69.5,29.85,SSW,213,1.0,3.0,94,0.39,,CLR,0.39,83.00,VWS V14.01,2013-03-20 22:30:00,
2013-03-20 18:33:00,71.3,69.8,29.85,SSE,156,5.0,6.0,95,0.34,, +RA,0.39,74.00,VWS V14.01,2013-03-20 22:33:00,
2013-03-20 18:35:00,71.2,69.7,29.85,SE,144,5.0,6.0,95,0.34,,CLR,0.39,74.00,VWS V14.01,2013-03-20 22:35:00,
2013-03-20 18:38:00,71.1,69.6,29.85,SSW,193,1.0,5.0,95,0.13,,OVC085,0.39,56.00,VWS V14.01,2013-03-20 22:38:00,
2013-03-20 18:40:00,71.1,69.6,29.85,SSW,194,0.0,5.0,95,0.13,,CLR,0.39,56.00,VWS V14.01,2013-03-20 22:40:00,
2013-03-20 18:43:00,70.8,69.3,29.85,SSW,198,3.0,5.0,95,0.02,,OVC085,0.39,35.00,VWS V14.01,2013-03-20 22:43:00,
2013-03-20 18:45:00,70.8,69.3,29.85,SSW,196,3.0,5.0,95,0.02,,CLR,0.39,35.00,VWS V14.01,2013-03-20 22:45:00,
2013-03-20 18:49:00,70.7,69.2,29.86,SSW,205,3.0,7.0,95,0.00,,OVC085,0.39,35.00,VWS V14.01,2013-03-20 22:49:00,
2013-03-20 18:50:00,70.7,69.2,29.86,SSW,202,2.0,7.0,95,0.00,,CLR,0.39,37.00,VWS V14.01,2013-03-20 22:50:00,
2013-03-20 18:54:00,70.8,69.3,29.86,SSW,193,1.0,3.0,95,0.00,,OVC085,0.39,33.00,VWS V14.01,2013-03-20 22:54:00,
2013-03-20 18:55:00,70.8,69.3,29.86,SSW,193,2.0,3.0,95,0.00,,CLR,0.39,33.00,VWS V14.01,2013-03-20 22:55:00,
2013-03-20 18:59:00,70.9,69.7,29.86,SSW,202,1.0,2.0,96,0.00,,OVC085,0.39,23.00,VWS V14.01,2013-03-20 22:59:00,
2013-03-20 19:00:00,70.9,69.7,29.86,SSW,202,1.0,2.0,96,0.00,,CLR,0.39,23.00,VWS V14.01,2013-03-20 23:00:00,
2013-03-20 19:03:00,70.8,69.3,29.86,SSE,162,1.0,1.0,95,0.00,,OVC085,0.39,19.00,VWS V14.01,2013-03-20 23:03:00,
2013-03-20 19:05:00,70.8,69.3,29.86,SSE,161,1.0,1.0,95,0.00,,CLR,0.39,19.00,VWS V14.01,2013-03-20 23:05:00,
2013-03-20 19:08:00,71.0,69.8,29.86,SSE,162,1.0,1.0,96,0.00,,OVC085,0.39,14.00,VWS V14.01,2013-03-20 23:08:00,
2013-03-20 19:10:00,71.0,69.8,29.86,SSE,162,0.0,1.0,96,0.00,,CLR,0.39,14.00,VWS V14.01,2013-03-20 23:10:00,
2013-03-20 19:13:00,71.0,69.8,29.86,SSE,164,1.0,2.0,96,0.00,,OVC085,0.39,12.00,VWS V14.01,2013-03-20 23:13:00,
2013-03-20 19:15:00,71.0,69.8,29.86,SSE,164,1.0,2.0,96,0.00,,CLR,0.39,12.00,VWS V14.01,2013-03-20 23:15:00,
2013-03-20 19:18:00,70.9,69.7,29.86,WSW,238,3.0,5.0,96,0.00,,OVC085,0.39,5.00,VWS V14.01,2013-03-20 23:18:00,
2013-03-20 19:20:00,70.9,69.7,29.86,SW,234,5.0,5.0,96,0.00,,CLR,0.39,5.00,VWS V14.01,2013-03-20 23:20:00,
2013-03-20 19:23:00,70.9,69.7,29.86,WSW,240,3.0,3.0,96,0.00,,OVC085,0.39,0.00,VWS V14.01,2013-03-20 23:23:00,
2013-03-20 19:25:00,70.9,69.7,29.86,WSW,240,2.0,3.0,96,0.00,,CLR,0.39,0.00,VWS V14.01,2013-03-20 23:25:00,
2013-03-20 19:28:00,70.6,69.1,29.87,SW,226,4.0,7.0,95,0.00,,OVC085,0.39,0.00,VWS V14.01,2013-03-20 23:28:00,
2013-03-20 19:30:00,70.6,69.1,29.87,SW,225,3.0,6.0,95,0.00,,CLR,0.39,0.00,VWS V14.01,2013-03-20 23:30:00,
2013-03-20 19:33:00,70.3,69.1,29.87,SW,221,2.0,3.0,96,0.00,,OVC085,0.39,0.00,VWS V14.01,2013-03-20 23:33:00,
2013-03-20 19:35:00,70.3,69.1,29.87,SW,221,3.0,3.0,96,0.00,,CLR,0.39,0.00,VWS V14.01,2013-03-20 23:35:00,
2013-03-20 19:38:00,70.2,69.0,29.87,WSW,238,2.0,4.0,96,0.00,,BKN070,0.39,0.00,VWS V14.01,2013-03-20 23:38:00,
2013-03-20 19:40:00,70.2,69.0,29.87,WSW,238,1.0,4.0,96,0.00,,CLR,0.39,0.00,VWS V14.01,2013-03-20 23:40:00,
2013-03-20 19:43:00,70.1,68.9,29.88,WSW,246,2.0,3.0,96,0.00,,BKN070,0.39,0.00,VWS V14.01,2013-03-20 23:43:00,
2013-03-20 19:45:00,70.1,68.9,29.88,WSW,246,3.0,3.0,96,0.00,,CLR,0.39,0.00,VWS V14.01,2013-03-20 23:45:00,
2013-03-20 19:48:00,70.0,68.5,29.88,SW,222,1.0,2.0,95,0.00,,BKN070,0.39,0.00,VWS V14.01,2013-03-20 23:48:00,
2013-03-20 19:50:00,70.0,68.5,29.88,SW,222,1.0,2.0,95,0.00,,CLR,0.39,0.00,VWS V14.01,2013-03-20 23:50:00,
2013-03-20 19:53:00,69.9,68.7,29.87,SW,222,1.0,2.0,96,0.00,,BKN070,0.39,0.00,VWS V14.01,2013-03-20 23:53:00,
2013-03-20 19:55:00,69.8,68.6,29.87,SW,222,1.0,2.0,96,0.00,,CLR,0.39,0.00,VWS V14.01,2013-03-20 23:55:00,
2013-03-20 19:58:00,69.8,68.6,29.88,SW,222,1.0,1.0,96,0.00,,BKN070,0.39,0.00,VWS V14.01,2013-03-20 23:58:00,
2013-03-20 20:00:00,69.8,68.6,29.88,SW,222,0.0,1.0,96,0.00,,CLR,0.39,0.00,VWS V14.01,2013-03-21 00:00:00,
2013-03-20 20:03:00,70.0,68.8,29.89,WNW,290,3.0,3.0,96,0.00,,BKN070,0.39,0.00,VWS V14.01,2013-03-21 00:03:00,
2013-03-20 20:05:00,70.0,68.8,29.89,NW,304,3.0,3.0,96,0.00,,CLR,0.39,0.00,VWS V14.01,2013-03-21 00:05:00,
2013-03-20 20:08:00,70.0,68.8,29.89,WNW,302,3.0,5.0,96,0.00,,SCT075,0.39,0.00,VWS V14.01,2013-03-21 00:08:00,
2013-03-20 20:10:00,70.0,68.8,29.89,WNW,302,2.0,5.0,96,0.00,,CLR,0.39,0.00,VWS V14.01,2013-03-21 00:10:00,
2013-03-20 20:13:00,69.8,68.3,29.89,WNW,293,10.0,12.0,95,0.00,,SCT075,0.39,0.00,VWS V14.01,2013-03-21 00:13:00,
2013-03-20 20:15:00,69.7,68.2,29.89,NNW,347,7.0,12.0,95,0.00,,CLR,0.39,0.00,VWS V14.01,2013-03-21 00:15:00,
2013-03-20 20:18:00,68.2,65.5,29.89,NW,311,4.0,10.0,91,0.00,,SCT075,0.39,0.00,VWS V14.01,2013-03-21 00:18:00,
2013-03-20 20:20:00,68.1,65.4,29.89,NW,304,3.0,10.0,91,0.00,,CLR,0.39,0.00,VWS V14.01,2013-03-21 00:20:00,
2013-03-20 20:23:00,67.1,63.8,29.89,WNW,303,6.0,8.0,89,0.00,,SCT075,0.39,0.00,VWS V14.01,2013-03-21 00:23:00,
2013-03-20 20:25:00,67.0,63.7,29.89,NW,319,7.0,8.0,89,0.00,,CLR,0.39,0.00,VWS V14.01,2013-03-21 00:25:00,
2013-03-20 20:28:00,66.9,62.6,29.90,NW,304,4.0,7.0,86,0.00,,SCT075,0.39,0.00,VWS V14.01,2013-03-21 00:28:00,
2013-03-20 20:30:00,66.9,62.6,29.90,NW,310,4.0,7.0,86,0.00,,CLR,0.39,0.00,VWS V14.01,2013-03-21 00:30:00,
2013-03-20 20:33:00,67.3,62.3,29.90,WNW,303,2.0,5.0,84,0.00,,SCT075,0.39,0.00,VWS V14.01,2013-03-21 00:33:00,
2013-03-20 20:35:00,67.4,62.4,29.90,WNW,282,4.0,5.0,84,0.00,,CLR,0.39,0.00,VWS V14.01,2013-03-21 00:35:00,
2013-03-20 20:38:00,67.9,62.5,29.91,WNW,301,8.0,10.0,83,0.00,,SCT075,0.39,0.00,VWS V14.01,2013-03-21 00:38:00,
2013-03-20 20:40:00,67.9,62.5,29.91,WNW,287,8.0,10.0,83,0.00,,CLR,0.39,0.00,VWS V14.01,2013-03-21 00:40:00,
2013-03-20 20:43:00,68.4,62.0,29.91,NW,316,6.0,9.0,80,0.00,,SCT075,0.39,0.00,VWS V14.01,2013-03-21 00:43:00,
2013-03-20 20:45:00,68.5,62.1,29.91,NW,324,3.0,9.0,80,0.00,,CLR,0.39,0.00,VWS V14.01,2013-03-21 00:45:00,
2013-03-20 20:48:00,68.8,62.0,29.91,NNW,333,4.0,6.0,79,0.00,,SCT075,0.39,0.00,VWS V14.01,2013-03-21 00:48:00,
2013-03-20 20:50:00,68.8,62.0,29.91,NW,325,2.0,6.0,79,0.00,,CLR,0.39,0.00,VWS V14.01,2013-03-21 00:50:00,
2013-03-20 20:53:00,69.1,61.6,29.91,NNW,335,8.0,8.0,77,0.00,,SCT075,0.39,0.00,VWS V14.01,2013-03-21 00:53:00,
2013-03-20 20:55:00,69.2,61.7,29.91,WNW,298,7.0,10.0,77,0.00,,CLR,0.39,0.00,VWS V14.01,2013-03-21 00:55:00,
2013-03-20 20:58:00,69.4,61.5,29.91,NW,313,10.0,12.0,76,0.00,,SCT075,0.39,0.00,VWS V14.01,2013-03-21 00:58:00,
2013-03-20 21:00:00,69.4,61.5,29.91,NNW,330,7.0,11.0,76,0.00,,CLR,0.39,0.00,VWS V14.01,2013-03-21 01:00:00,
2013-03-20 21:03:00,69.6,61.7,29.93,WNW,293,6.0,9.0,76,0.00,,SCT075,0.39,0.00,VWS V14.01,2013-03-21 01:03:00,
2013-03-20 21:05:00,69.6,61.7,29.93,WNW,285,5.0,9.0,76,0.00,,CLR,0.39,0.00,VWS V14.01,2013-03-21 01:05:00,
2013-03-20 21:08:00,69.8,61.5,29.93,NW,308,7.0,9.0,75,0.00,,SCT075,0.39,0.00,VWS V14.01,2013-03-21 01:08:00,
2013-03-20 21:10:00,69.8,61.5,29.92,NW,318,4.0,9.0,75,0.00,,CLR,0.39,0.00,VWS V14.01,2013-03-21 01:10:00,
2013-03-20 21:13:00,70.0,61.7,29.93,NW,313,4.0,7.0,75,0.00,,SCT075,0.39,0.00,VWS V14.01,2013-03-21 01:13:00,
2013-03-20 21:15:00,70.0,61.7,29.93,NW,309,2.0,7.0,75,0.00,,CLR,0.39,0.00,VWS V14.01,2013-03-21 01:15:00,
2013-03-20 21:18:00,70.1,61.4,29.94,WNW,282,5.0,9.0,74,0.00,,SCT075,0.39,0.00,VWS V14.01,2013-03-21 01:18:00,
2013-03-20 21:20:00,70.1,61.4,29.94,West,276,4.0,9.0,74,0.00,,CLR,0.39,0.00,VWS V14.01,2013-03-21 01:20:00,
2013-03-20 21:23:00,70.2,61.5,29.93,NW,316,2.0,4.0,74,0.00,,SCT075,0.39,0.00,VWS V14.01,2013-03-21 01:23:00,
2013-03-20 21:25:00,70.2,61.5,29.93,NW,322,3.0,5.0,74,0.00,,CLR,0.39,0.00,VWS V14.01,2013-03-21 01:25:00,
2013-03-20 21:28:00,70.3,61.2,29.91,North,9,7.0,9.0,73,0.00,,SCT075,0.39,0.00,VWS V14.01,2013-03-21 01:28:00,
2013-03-20 21:30:00,70.3,61.2,29.92,NNW,334,6.0,9.0,73,0.00,,CLR,0.39,0.00,VWS V14.01,2013-03-21 01:30:00,
2013-03-20 21:33:00,70.3,61.6,29.93,North,360,6.0,14.0,74,0.00,,SCT075,0.39,0.00,VWS V14.01,2013-03-21 01:33:00,
2013-03-20 21:35:00,70.3,61.6,29.93,NNW,334,5.0,14.0,74,0.00,,CLR,0.39,0.00,VWS V14.01,2013-03-21 01:35:00,
2013-03-20 21:38:00,70.3,61.2,29.94,NNW,333,8.0,12.0,73,0.00,,FEW080,0.39,0.00,VWS V14.01,2013-03-21 01:38:00,
2013-03-20 21:40:00,70.3,61.2,29.94,NNW,335,6.0,11.0,73,0.00,,CLR,0.39,0.00,VWS V14.01,2013-03-21 01:40:00,
2013-03-20 21:43:00,70.3,60.9,29.96,NW,321,8.0,16.0,72,0.00,,FEW080,0.39,0.00,VWS V14.01,2013-03-21 01:43:00,
2013-03-20 21:45:00,70.3,60.9,29.96,WNW,286,12.0,13.0,72,0.00,,CLR,0.39,0.00,VWS V14.01,2013-03-21 01:45:00,
2013-03-20 21:48:00,70.4,61.0,29.97,WNW,298,11.0,13.0,72,0.00,,FEW080,0.39,0.00,VWS V14.01,2013-03-21 01:48:00,
2013-03-20 21:50:00,70.4,61.0,29.97,WNW,289,8.0,13.0,72,0.00,,CLR,0.39,0.00,VWS V14.01,2013-03-21 01:50:00,
2013-03-20 21:53:00,70.4,61.0,29.98,WNW,296,10.0,18.0,72,0.00,,FEW080,0.39,0.00,VWS V14.01,2013-03-21 01:53:00,
2013-03-20 21:55:00,70.5,61.0,29.98,NNW,329,9.0,18.0,72,0.00,,CLR,0.39,0.00,VWS V14.01,2013-03-21 01:55:00,
2013-03-20 21:58:00,70.4,61.3,29.98,WNW,296,4.0,11.0,73,0.00,,FEW080,0.39,0.00,VWS V14.01,2013-03-21 01:58:00,
2013-03-20 22:00:00,70.4,61.3,29.98,NNW,341,4.0,11.0,73,0.00,,CLR,0.39,0.00,VWS V14.01,2013-03-21 02:00:00,
2013-03-20 22:03:00,70.3,61.2,29.97,WNW,298,5.0,15.0,73,0.00,,FEW080,0.39,0.00,VWS V14.01,2013-03-21 02:03:00,
2013-03-20 22:05:00,70.3,61.2,29.97,NNW,341,7.0,15.0,73,0.00,,CLR,0.39,0.00,VWS V14.01,2013-03-21 02:05:00,
2013-03-20 22:08:00,70.1,61.0,29.97,WNW,288,6.0,13.0,73,0.00,,FEW080,0.39,0.00,VWS V14.01,2013-03-21 02:08:00,
2013-03-20 22:10:00,70.1,61.0,29.97,West,268,4.0,13.0,73,0.00,,CLR,0.39,0.00,VWS V14.01,2013-03-21 02:10:00,
2013-03-20 22:13:00,69.9,60.9,29.97,NW,321,4.0,15.0,73,0.00,,FEW080,0.39,0.00,VWS V14.01,2013-03-21 02:13:00,
2013-03-20 22:15:00,69.9,60.9,29.97,NW,325,6.0,15.0,73,0.00,,CLR,0.39,0.00,VWS V14.01,2013-03-21 02:15:00,
2013-03-20 22:18:00,69.6,61.0,29.97,West,280,4.0,12.0,74,0.00,,FEW080,0.39,0.00,VWS V14.01,2013-03-21 02:18:00,
2013-03-20 22:20:00,69.5,60.9,29.97,WNW,293,2.0,12.0,74,0.00,,CLR,0.39,0.00,VWS V14.01,2013-03-21 02:20:00,
2013-03-20 22:23:00,69.3,60.7,29.96,NNW,331,8.0,14.0,74,0.00,,FEW080,0.39,0.00,VWS V14.01,2013-03-21 02:23:00,
2013-03-20 22:25:00,69.3,60.7,29.96,NW,322,7.0,12.0,74,0.00,,CLR,0.39,0.00,VWS V14.01,2013-03-21 02:25:00,
2013-03-20 22:29:00,69.1,60.8,29.95,NW,316,7.0,17.0,75,0.00,,FEW080,0.39,0.00,VWS V14.01,2013-03-21 02:29:00,
2013-03-20 22:30:00,69.1,60.8,29.95,NW,305,7.0,17.0,75,0.00,,CLR,0.39,0.00,VWS V14.01,2013-03-21 02:30:00,
2013-03-20 22:34:00,68.9,61.0,29.94,NW,325,9.0,9.0,76,0.00,,FEW080,0.39,0.00,VWS V14.01,2013-03-21 02:34:00,
2013-03-20 22:35:00,68.9,61.0,29.93,NNW,338,7.0,9.0,76,0.00,,CLR,0.39,0.00,VWS V14.01,2013-03-21 02:35:00,
2013-03-20 22:39:00,68.6,60.7,29.91,NNW,343,2.0,9.0,76,0.00,,FEW080,0.39,0.00,VWS V14.01,2013-03-21 02:39:00,
2013-03-20 22:40:00,68.6,60.7,29.91,NW,317,4.0,9.0,76,0.00,,CLR,0.39,0.00,VWS V14.01,2013-03-21 02:40:00,
2013-03-20 22:44:00,68.4,60.9,29.91,WNW,284,4.0,11.0,77,0.00,,FEW080,0.39,0.00,VWS V14.01,2013-03-21 02:44:00,
2013-03-20 22:45:00,68.4,60.9,29.91,WNW,291,4.0,11.0,77,0.00,,CLR,0.39,0.00,VWS V14.01,2013-03-21 02:45:00,
2013-03-20 22:49:00,68.2,60.7,29.91,WNW,303,5.0,9.0,77,0.00,,BKN120,0.39,0.00,VWS V14.01,2013-03-21 02:49:00,
2013-03-20 22:50:00,68.2,60.7,29.91,WNW,296,4.0,9.0,77,0.00,,CLR,0.39,0.00,VWS V14.01,2013-03-21 02:50:00,
2013-03-20 22:54:00,68.1,61.0,29.91,WNW,295,5.0,5.0,78,0.00,,BKN120,0.39,0.00,VWS V14.01,2013-03-21 02:54:00,
2013-03-20 22:55:00,68.1,61.0,29.91,WNW,286,4.0,5.0,78,0.00,,CLR,0.39,0.00,VWS V14.01,2013-03-21 02:55:00,
2013-03-20 22:59:00,68.0,60.9,29.91,WSW,242,7.0,9.0,78,0.00,,BKN120,0.39,0.00,VWS V14.01,2013-03-21 02:59:00,
2013-03-20 23:00:00,68.0,60.9,29.91,WNW,296,8.0,9.0,78,0.00,,CLR,0.39,0.00,VWS V14.01,2013-03-21 03:00:00,
2013-03-20 23:04:00,67.9,61.2,29.91,West,266,4.0,4.0,79,0.00,,BKN120,0.39,0.00,VWS V14.01,2013-03-21 03:04:00,
2013-03-20 23:05:00,67.9,61.2,29.91,West,266,3.0,4.0,79,0.00,,CLR,0.39,0.00,VWS V14.01,2013-03-21 03:05:00,
2013-03-20 23:09:00,67.8,61.1,29.90,NW,306,7.0,9.0,79,0.00,,BKN120,0.39,0.00,VWS V14.01,2013-03-21 03:09:00,
2013-03-20 23:10:00,67.8,61.1,29.90,WNW,302,7.0,9.0,79,0.00,,CLR,0.39,0.00,VWS V14.01,2013-03-21 03:10:00,
2013-03-20 23:14:00,67.7,61.0,29.89,NW,317,3.0,6.0,79,0.00,,BKN120,0.39,0.00,VWS V14.01,2013-03-21 03:14:00,
2013-03-20 23:15:00,67.7,61.0,29.89,WNW,300,3.0,5.0,79,0.00,,CLR,0.39,0.00,VWS V14.01,2013-03-21 03:15:00,
2013-03-20 23:19:00,67.7,61.0,29.88,WNW,298,2.0,2.0,79,0.00,,BKN120,0.39,0.00,VWS V14.01,2013-03-21 03:19:00,
2013-03-20 23:20:00,67.7,61.0,29.88,WNW,298,3.0,3.0,79,0.00,,CLR,0.39,0.00,VWS V14.01,2013-03-21 03:20:00,
2013-03-20 23:24:00,67.7,61.0,29.88,NW,311,2.0,2.0,79,0.00,,BKN120,0.39,0.00,VWS V14.01,2013-03-21 03:24:00,
2013-03-20 23:25:00,67.7,61.0,29.88,NW,311,2.0,2.0,79,0.00,,CLR,0.39,0.00,VWS V14.01,2013-03-21 03:25:00,
2013-03-20 23:28:00,67.7,61.3,29.89,WNW,298,4.0,5.0,80,0.00,,BKN120,0.39,0.00,VWS V14.01,2013-03-21 03:28:00,
2013-03-20 23:30:00,67.7,61.3,29.89,WNW,302,3.0,5.0,80,0.00,,CLR,0.39,0.00,VWS V14.01,2013-03-21 03:30:00,
2013-03-20 23:33:00,67.5,61.1,29.89,NW,306,3.0,5.0,80,0.00,,BKN120,0.39,0.00,VWS V14.01,2013-03-21 03:33:00,
2013-03-20 23:35:00,67.5,61.1,29.89,NW,305,3.0,5.0,80,0.00,,CLR,0.39,0.00,VWS V14.01,2013-03-21 03:35:00,
2013-03-20 23:38:00,67.4,61.4,29.89,West,280,3.0,6.0,81,0.00,,BKN120,0.39,0.00,VWS V14.01,2013-03-21 03:38:00,
2013-03-20 23:40:00,67.4,61.4,29.89,West,280,3.0,6.0,81,0.00,,CLR,0.39,0.00,VWS V14.01,2013-03-21 03:40:00,
2013-03-20 23:43:00,67.3,61.3,29.89,WNW,294,3.0,5.0,81,0.00,,BKN120,0.39,0.00,VWS V14.01,2013-03-21 03:43:00,
2013-03-20 23:45:00,67.3,61.3,29.89,WNW,290,3.0,4.0,81,0.00,,CLR,0.39,0.00,VWS V14.01,2013-03-21 03:45:00,
2013-03-20 23:48:00,67.3,61.3,29.90,West,261,7.0,8.0,81,0.00,,BKN120,0.39,0.00,VWS V14.01,2013-03-21 03:48:00,
2013-03-20 23:50:00,67.3,61.3,29.90,West,271,5.0,8.0,81,0.00,,CLR,0.39,0.00,VWS V14.01,2013-03-21 03:50:00,
2013-03-20 23:53:00,67.2,61.2,29.89,WNW,300,4.0,5.0,81,0.00,,BKN120,0.39,0.00,VWS V14.01,2013-03-21 03:53:00,
2013-03-20 23:55:00,67.3,61.3,29.89,WNW,282,3.0,5.0,81,0.00,,CLR,0.39,0.00,VWS V14.01,2013-03-21 03:55:00,
2013-03-20 23:58:00,67.2,61.2,29.88,NW,315,6.0,7.0,81,0.00,,BKN120,0.39,0.00,VWS V14.01,2013-03-21 03:58:00,